Skip Navigation
Skip Navigation

Today's Weather Data

Time Wind Dir Wind Spd
mph
Wind Gust
mph
Hum In
%
Humidity
%
Temp In
F
Temp
F
Raw Barom
in
Tot Rain
in
UV Solar
W/sqm
DailyRain
in
HourRain
in
24HrRain
in
RainRate
in/hr
10/25/2014 12:00:59a 40 0 0 22 36 80.1 65.9 30.04 1.00 0.0 0 0.00 0.00 0.00 0.000
10/25/2014 12:02:02a 39 0 0 22 36 80.1 65.8 30.04 1.00 0.0 0 0.00 0.00 0.00 0.000
10/25/2014 12:03:02a 39 0 0 22 36 80.1 65.8 30.04 1.00 0.0 0 0.00 0.00 0.00 0.000
10/25/2014 12:04:05a 40 0 0 22 36 80.1 65.8 30.03 1.00 0.0 0 0.00 0.00 0.00 0.000
10/25/2014 12:05:05a 39 0 0 22 36 80.1 65.8 30.03 1.00 0.0 0 0.00 0.00 0.00 0.000
10/25/2014 12:06:05a 39 0 0 22 36 79.9 65.7 30.03 1.00 0.0 0 0.00 0.00 0.00 0.000
10/25/2014 12:07:08a 39 0 0 22 36 79.9 65.7 30.03 1.00 0.0 0 0.00 0.00 0.00 0.000
10/25/2014 12:08:08a 39 0 0 22 37 79.9 65.6 30.04 1.00 0.0 0 0.00 0.00 0.00 0.000
10/25/2014 12:09:09a 39 0 0 22 37 79.9 65.5 30.03 1.00 0.0 0 0.00 0.00 0.00 0.000
10/25/2014 12:10:09a 40 0 0 22 37 79.9 65.5 30.03 1.00 0.0 0 0.00 0.00 0.00 0.000
10/25/2014 12:11:09a 40 0 0 22 37 79.9 65.5 30.03 1.00 0.0 0 0.00 0.00 0.00 0.000
10/25/2014 12:12:09a 40 0 0 22 37 79.9 65.5 30.04 1.00 0.0 0 0.00 0.00 0.00 0.000
10/25/2014 12:13:09a 40 0 0 22 37 79.9 65.5 30.03 1.00 0.0 0 0.00 0.00 0.00 0.000
10/25/2014 12:14:09a 40 0 0 22 37 79.9 65.5 30.04 1.00 0.0 0 0.00 0.00 0.00 0.000
10/25/2014 12:15:09a 39 0 0 22 37 79.9 65.5 30.04 1.00 0.0 0 0.00 0.00 0.00 0.000
10/25/2014 12:16:12a 39 0 0 22 37 79.9 65.5 30.04 1.00 0.0 0 0.00 0.00 0.00 0.000
10/25/2014 12:17:12a 39 0 0 22 37 79.7 65.5 30.03 1.00 0.0 0 0.00 0.00 0.00 0.000
10/25/2014 12:18:12a 40 0 0 22 36 79.7 65.5 30.04 1.00 0.0 0 0.00 0.00 0.00 0.000
10/25/2014 12:19:15a 39 0 1 22 36 79.7 65.4 30.04 1.00 0.0 0 0.00 0.00 0.00 0.000
10/25/2014 12:20:15a 39 0 1 22 37 79.7 65.4 30.04 1.00 0.0 0 0.00 0.00 0.00 0.000
10/25/2014 12:21:15a 40 0 1 22 36 79.7 65.5 30.04 1.00 0.0 0 0.00 0.00 0.00 0.000
10/25/2014 12:22:15a 40 0 1 22 36 79.7 65.5 30.04 1.00 0.0 0 0.00 0.00 0.00 0.000
10/25/2014 12:23:15a 40 1 2 22 37 79.7 65.5 30.04 1.00 0.0 0 0.00 0.00 0.00 0.000
10/25/2014 12:24:15a 40 1 2 22 37 79.7 65.6 30.04 1.00 0.0 0 0.00 0.00 0.00 0.000
10/25/2014 12:25:15a 39 0 2 22 36 79.7 65.7 30.04 1.00 0.0 0 0.00 0.00 0.00 0.000
10/25/2014 12:26:15a 39 0 2 22 36 79.7 65.8 30.04 1.00 0.0 0 0.00 0.00 0.00 0.000
10/25/2014 12:27:15a 40 0 2 22 36 79.7 65.9 30.04 1.00 0.0 0 0.00 0.00 0.00 0.000
10/25/2014 12:28:15a 40 1 2 22 36 79.5 66.1 30.04 1.00 0.0 0 0.00 0.00 0.00 0.000
10/25/2014 12:29:15a 40 3 3 22 36 79.5 66.2 30.04 1.00 0.0 0 0.00 0.00 0.00 0.000
10/25/2014 12:30:16a 40 1 4 22 35 79.5 66.0 30.04 1.00 0.0 0 0.00 0.00 0.00 0.000
10/25/2014 12:31:16a 40 0 4 22 33 79.5 65.7 30.04 1.00 0.0 0 0.00 0.00 0.00 0.000
10/25/2014 12:32:16a 39 0 4 22 33 79.5 65.3 30.04 1.00 0.0 0 0.00 0.00 0.00 0.000
10/25/2014 12:33:19a 40 0 0 22 34 79.5 65.1 30.04 1.00 0.0 0 0.00 0.00 0.00 0.000
10/25/2014 12:34:22a 40 0 1 22 34 79.5 65.0 30.04 1.00 0.0 0 0.00 0.00 0.00 0.000
10/25/2014 12:35:22a 40 2 2 22 34 79.5 64.9 30.04 1.00 0.0 0 0.00 0.00 0.00 0.000
10/25/2014 12:36:22a 40 1 2 22 35 79.5 65.0 30.04 1.00 0.0 0 0.00 0.00 0.00 0.000
10/25/2014 12:37:22a 39 1 3 22 36 79.5 65.1 30.04 1.00 0.0 0 0.00 0.00 0.00 0.000
10/25/2014 12:38:22a 40 0 3 22 37 79.3 65.2 30.04 1.00 0.0 0 0.00 0.00 0.00 0.000
10/25/2014 12:39:22a 40 0 3 22 37 79.3 65.3 30.04 1.00 0.0 0 0.00 0.00 0.00 0.000
10/25/2014 12:40:22a 40 0 3 22 37 79.3 65.4 30.04 1.00 0.0 0 0.00 0.00 0.00 0.000
10/25/2014 12:41:22a 39 2 3 22 37 79.3 65.5 30.04 1.00 0.0 0 0.00 0.00 0.00 0.000
10/25/2014 12:42:22a 40 0 3 22 36 79.3 65.7 30.04 1.00 0.0 0 0.00 0.00 0.00 0.000
10/25/2014 12:43:22a 40 0 3 22 37 79.3 65.8 30.04 1.00 0.0 0 0.00 0.00 0.00 0.000
10/25/2014 12:44:22a 39 0 3 22 37 79.3 65.8 30.04 1.00 0.0 0 0.00 0.00 0.00 0.000
10/25/2014 12:45:23a 39 0 3 22 37 79.3 65.8 30.04 1.00 0.0 0 0.00 0.00 0.00 0.000
10/25/2014 12:46:23a 40 1 3 22 36 79.3 65.9 30.04 1.00 0.0 0 0.00 0.00 0.00 0.000
10/25/2014 12:47:23a 39 2 3 22 36 79.3 65.9 30.04 1.00 0.0 0 0.00 0.00 0.00 0.000
10/25/2014 12:48:23a 40 1 2 22 34 79.3 65.8 30.04 1.00 0.0 0 0.00 0.00 0.00 0.000
10/25/2014 12:49:23a 40 2 2 22 34 79.1 65.6 30.04 1.00 0.0 0 0.00 0.00 0.00 0.000
10/25/2014 12:50:26a 40 2 3 22 34 79.1 65.6 30.04 1.00 0.0 0 0.00 0.00 0.00 0.000
10/25/2014 12:51:26a 40 0 3 22 34 79.1 65.4 30.04 1.00 0.0 0 0.00 0.00 0.00 0.000
10/25/2014 12:52:26a 39 1 3 22 34 79.1 65.2 30.04 1.00 0.0 0 0.00 0.00 0.00 0.000
10/25/2014 12:53:26a 39 3 3 22 34 79.1 65.1 30.04 1.00 0.0 0 0.00 0.00 0.00 0.000
10/25/2014 12:54:26a 40 2 3 22 34 79.1 65.1 30.04 1.00 0.0 0 0.00 0.00 0.00 0.000
10/25/2014 12:55:26a 39 0 3 22 35 79.1 65.1 30.04 1.00 0.0 0 0.00 0.00 0.00 0.000
10/25/2014 12:56:26a 40 0 3 22 36 79.1 65.2 30.04 1.00 0.0 0 0.00 0.00 0.00 0.000
10/25/2014 12:57:27a 40 0 3 22 36 79.1 65.4 30.04 1.00 0.0 0 0.00 0.00 0.00 0.000
10/25/2014 12:58:27a 40 1 3 22 36 79.1 65.6 30.04 1.00 0.0 0 0.00 0.00 0.00 0.000
10/25/2014 12:59:27a 40 2 3 22 36 79.1 65.7 30.04 1.00 0.0 0 0.00 0.00 0.00 0.000
10/25/2014 1:00:27a 40 3 3 22 35 78.9 65.9 30.04 1.00 0.0 0 0.00 0.00 0.00 0.000
10/25/2014 1:01:27a 39 2 3 22 35 78.9 66.1 30.04 1.00 0.0 0 0.00 0.00 0.00 0.000
10/25/2014 1:02:27a 40 1 3 22 35 78.9 66.1 30.04 1.00 0.0 0 0.00 0.00 0.00 0.000
10/25/2014 1:03:27a 40 3 3 22 34 78.9 65.9 30.04 1.00 0.0 0 0.00 0.00 0.00 0.000
10/25/2014 1:04:27a 38 3 4 22 35 78.9 65.8 30.04 1.00 0.0 0 0.00 0.00 0.00 0.000
10/25/2014 1:05:27a 38 0 4 22 35 78.9 65.8 30.03 1.00 0.0 0 0.00 0.00 0.00 0.000
10/25/2014 1:06:27a 38 0 4 22 36 78.9 65.9 30.04 1.00 0.0 0 0.00 0.00 0.00 0.000
10/25/2014 1:07:27a 38 3 4 22 36 78.9 65.9 30.04 1.00 0.0 0 0.00 0.00 0.00 0.000
10/25/2014 1:08:27a 38 3 4 22 36 78.9 66.0 30.03 1.00 0.0 0 0.00 0.00 0.00 0.000
10/25/2014 1:09:27a 38 3 4 22 35 78.9 66.1 30.04 1.00 0.0 0 0.00 0.00 0.00 0.000
10/25/2014 1:10:27a 36 4 4 22 34 78.9 66.1 30.03 1.00 0.0 0 0.00 0.00 0.00 0.000
10/25/2014 1:11:27a 36 4 5 22 34 78.8 66.1 30.03 1.00 0.0 0 0.00 0.00 0.00 0.000
10/25/2014 1:12:27a 11 4 5 22 34 78.8 65.9 30.03 1.00 0.0 0 0.00 0.00 0.00 0.000
10/25/2014 1:13:27a 11 4 5 22 34 78.8 65.6 30.04 1.00 0.0 0 0.00 0.00 0.00 0.000
10/25/2014 1:14:27a 347 4 5 22 34 78.8 65.3 30.04 1.00 0.0 0 0.00 0.00 0.00 0.000
10/25/2014 1:15:28a 340 2 5 22 34 78.8 65.1 30.04 1.00 0.0 0 0.00 0.00 0.00 0.000
10/25/2014 1:16:28a 340 3 5 22 35 78.8 65.0 30.04 1.00 0.0 0 0.00 0.00 0.00 0.000
10/25/2014 1:17:28a 340 2 5 22 35 78.8 64.8 30.04 1.00 0.0 0 0.00 0.00 0.00 0.000
10/25/2014 1:18:28a 340 2 2 22 35 78.8 64.8 30.04 1.00 0.0 0 0.00 0.00 0.00 0.000
10/25/2014 1:19:28a 340 1 2 22 36 78.8 64.9 30.04 1.00 0.0 0 0.00 0.00 0.00 0.000
10/25/2014 1:20:28a 340 0 2 22 36 78.8 65.0 30.04 1.00 0.0 0 0.00 0.00 0.00 0.000
10/25/2014 1:21:31a 340 2 2 22 36 78.8 65.0 30.04 1.00 0.0 0 0.00 0.00 0.00 0.000
10/25/2014 1:22:31a 340 3 4 22 36 78.8 65.1 30.04 1.00 0.0 0 0.00 0.00 0.00 0.000
10/25/2014 1:23:31a 340 2 4 22 36 78.8 65.2 30.04 1.00 0.0 0 0.00 0.00 0.00 0.000
10/25/2014 1:24:31a 340 2 4 22 36 78.6 65.3 30.04 1.00 0.0 0 0.00 0.00 0.00 0.000
10/25/2014 1:25:31a 340 0 4 22 36 78.6 65.4 30.04 1.00 0.0 0 0.00 0.00 0.00 0.000
10/25/2014 1:26:31a 340 0 4 22 36 78.6 65.4 30.04 1.00 0.0 0 0.00 0.00 0.00 0.000
10/25/2014 1:27:31a 340 1 4 22 36 78.6 65.5 30.04 1.00 0.0 0 0.00 0.00 0.00 0.000
10/25/2014 1:28:31a 340 2 4 22 36 78.6 65.4 30.04 1.00 0.0 0 0.00 0.00 0.00 0.000
10/25/2014 1:29:31a 340 1 4 22 36 78.6 65.3 30.04 1.00 0.0 0 0.00 0.00 0.00 0.000
10/25/2014 1:30:32a 340 2 4 22 36 78.6 65.2 30.04 1.00 0.0 0 0.00 0.00 0.00 0.000
10/25/2014 1:31:32a 340 2 4 22 36 78.6 65.2 30.04 1.00 0.0 0 0.00 0.00 0.00 0.000
10/25/2014 1:32:32a 340 3 4 22 36 78.6 65.2 30.04 1.00 0.0 0 0.00 0.00 0.00 0.000
10/25/2014 1:33:32a 340 4 4 22 36 78.6 65.2 30.04 1.00 0.0 0 0.00 0.00 0.00 0.000
10/25/2014 1:34:32a 340 3 4 22 37 78.6 65.1 30.04 1.00 0.0 0 0.00 0.00 0.00 0.000
10/25/2014 1:35:32a 340 2 4 22 36 78.6 65.0 30.04 1.00 0.0 0 0.00 0.00 0.00 0.000
10/25/2014 1:36:35a 340 2 4 22 36 78.4 65.0 30.04 1.00 0.0 0 0.00 0.00 0.00 0.000
10/25/2014 1:37:35a 340 3 4 22 36 78.4 64.9 30.04 1.00 0.0 0 0.00 0.00 0.00 0.000
10/25/2014 1:38:35a 340 4 4 22 36 78.4 64.8 30.04 1.00 0.0 0 0.00 0.00 0.00 0.000
10/25/2014 1:39:35a 340 3 4 22 36 78.4 64.8 30.04 1.00 0.0 0 0.00 0.00 0.00 0.000
10/25/2014 1:40:35a 340 0 4 22 36 78.4 64.8 30.04 1.00 0.0 0 0.00 0.00 0.00 0.000
10/25/2014 1:41:35a 340 0 4 22 36 78.4 64.9 30.04 1.00 0.0 0 0.00 0.00 0.00 0.000
10/25/2014 1:42:41a 340 0 4 22 36 78.4 65.0 30.04 1.00 0.0 0 0.00 0.00 0.00 0.000
10/25/2014 1:43:45a 340 3 4 22 36 78.4 65.1 30.04 1.00 0.0 0 0.00 0.00 0.00 0.000
10/25/2014 1:44:45a 340 2 4 22 36 78.4 65.3 30.04 1.00 0.0 0 0.00 0.00 0.00 0.000
10/25/2014 1:45:45a 340 1 4 22 36 78.4 65.4 30.04 1.00 0.0 0 0.00 0.00 0.00 0.000
10/25/2014 1:46:45a 340 2 4 22 36 78.4 65.4 30.04 1.00 0.0 0 0.00 0.00 0.00 0.000
10/25/2014 1:47:45a 340 2 4 22 36 78.4 65.5 30.03 1.00 0.0 0 0.00 0.00 0.00 0.000
10/25/2014 1:48:45a 340 3 3 22 35 78.4 65.4 30.04 1.00 0.0 0 0.00 0.00 0.00 0.000
10/25/2014 1:49:45a 340 3 4 22 35 78.2 65.4 30.04 1.00 0.0 0 0.00 0.00 0.00 0.000
10/25/2014 1:50:45a 340 3 4 22 35 78.2 65.4 30.04 1.00 0.0 0 0.00 0.00 0.00 0.000
10/25/2014 1:51:45a 340 3 4 22 35 78.2 65.4 30.04 1.00 0.0 0 0.00 0.00 0.00 0.000
10/25/2014 1:52:48a 340 3 4 22 35 78.2 65.5 30.04 1.00 0.0 0 0.00 0.00 0.00 0.000
10/25/2014 1:53:48a 340 2 4 22 35 78.2 65.5 30.03 1.00 0.0 0 0.00 0.00 0.00 0.000
10/25/2014 1:54:51a 340 1 4 22 35 78.2 65.5 30.03 1.00 0.0 0 0.00 0.00 0.00 0.000
10/25/2014 1:55:51a 340 2 4 22 35 78.2 65.6 30.03 1.00 0.0 0 0.00 0.00 0.00 0.000
10/25/2014 1:56:51a 340 2 4 22 35 78.2 65.6 30.03 1.00 0.0 0 0.00 0.00 0.00 0.000
10/25/2014 1:57:51a 340 1 4 22 35 78.2 65.5 30.03 1.00 0.0 0 0.00 0.00 0.00 0.000
10/25/2014 1:58:51a 340 1 4 22 35 78.2 65.6 30.03 1.00 0.0 0 0.00 0.00 0.00 0.000
10/25/2014 1:59:52a 340 2 4 22 36 78.2 65.5 30.03 1.00 0.0 0 0.00 0.00 0.00 0.000
10/25/2014 2:00:52a 340 3 4 22 36 78.2 65.6 30.03 1.00 0.0 0 0.00 0.00 0.00 0.000
10/25/2014 2:01:52a 340 2 4 22 36 78.1 65.6 30.03 1.00 0.0 0 0.00 0.00 0.00 0.000
10/25/2014 2:02:52a 340 2 4 22 36 78.1 65.7 30.03 1.00 0.0 0 0.00 0.00 0.00 0.000
10/25/2014 2:03:52a 340 1 3 22 36 78.1 65.7 30.03 1.00 0.0 0 0.00 0.00 0.00 0.000
10/25/2014 2:04:52a 340 3 3 22 36 78.1 65.7 30.03 1.00 0.0 0 0.00 0.00 0.00 0.000
10/25/2014 2:05:55a 340 2 3 22 35 78.1 65.6 30.03 1.00 0.0 0 0.00 0.00 0.00 0.000
10/25/2014 2:06:55a 340 1 3 22 36 78.1 65.6 30.03 1.00 0.0 0 0.00 0.00 0.00 0.000
10/25/2014 2:07:55a 340 1 3 22 36 78.1 65.5 30.03 1.00 0.0 0 0.00 0.00 0.00 0.000
10/25/2014 2:08:55a 340 2 3 22 36 78.1 65.4 30.03 1.00 0.0 0 0.00 0.00 0.00 0.000
10/25/2014 2:09:55a 340 0 3 22 36 78.1 65.4 30.03 1.00 0.0 0 0.00 0.00 0.00 0.000
10/25/2014 2:10:55a 340 0 3 22 36 78.1 65.3 30.03 1.00 0.0 0 0.00 0.00 0.00 0.000
10/25/2014 2:11:55a 340 0 3 22 37 78.1 65.2 30.03 1.00 0.0 0 0.00 0.00 0.00 0.000
10/25/2014 2:12:55a 340 0 3 22 37 78.1 65.2 30.03 1.00 0.0 0 0.00 0.00 0.00 0.000
10/25/2014 2:13:55a 340 0 3 22 37 78.1 65.1 30.03 1.00 0.0 0 0.00 0.00 0.00 0.000
10/25/2014 2:15:02a 340 0 3 22 37 77.9 65.0 30.03 1.00 0.0 0 0.00 0.00 0.00 0.000
10/25/2014 2:16:05a 340 0 3 22 37 77.9 65.0 30.03 1.00 0.0 0 0.00 0.00 0.00 0.000
10/25/2014 2:17:05a 340 0 3 22 37 77.9 64.8 30.03 1.00 0.0 0 0.00 0.00 0.00 0.000
10/25/2014 2:18:05a 340 0 3 22 37 77.9 64.8 30.03 1.00 0.0 0 0.00 0.00 0.00 0.000
10/25/2014 2:19:05a 340 0 1 22 38 77.9 64.7 30.03 1.00 0.0 0 0.00 0.00 0.00 0.000
10/25/2014 2:20:05a 340 0 1 22 38 77.9 64.6 30.03 1.00 0.0 0 0.00 0.00 0.00 0.000
10/25/2014 2:21:05a 340 2 2 22 38 77.9 64.5 30.03 1.00 0.0 0 0.00 0.00 0.00 0.000
10/25/2014 2:22:05a 340 2 2 22 38 77.9 64.6 30.03 1.00 0.0 0 0.00 0.00 0.00 0.000
10/25/2014 2:23:05a 340 0 3 22 38 77.9 64.6 30.03 1.00 0.0 0 0.00 0.00 0.00 0.000
10/25/2014 2:24:05a 340 1 3 22 38 77.9 64.6 30.03 1.00 0.0 0 0.00 0.00 0.00 0.000
10/25/2014 2:25:05a 340 0 3 22 38 77.9 64.6 30.03 1.00 0.0 0 0.00 0.00 0.00 0.000
10/25/2014 2:26:05a 340 1 3 22 38 77.9 64.6 30.03 1.00 0.0 0 0.00 0.00 0.00 0.000
10/25/2014 2:27:05a 340 0 3 22 38 77.9 64.6 30.03 1.00 0.0 0 0.00 0.00 0.00 0.000
10/25/2014 2:28:05a 340 0 3 22 38 77.7 64.6 30.03 1.00 0.0 0 0.00 0.00 0.00 0.000
10/25/2014 2:29:06a 340 0 3 22 38 77.7 64.7 30.03 1.00 0.0 0 0.00 0.00 0.00 0.000
10/25/2014 2:30:06a 340 0 3 22 39 77.7 64.7 30.03 1.00 0.0 0 0.00 0.00 0.00 0.000
10/25/2014 2:31:06a 340 1 3 22 39 77.7 64.7 30.03 1.00 0.0 0 0.00 0.00 0.00 0.000
10/25/2014 2:32:06a 340 1 3 22 39 77.7 64.8 30.03 1.00 0.0 0 0.00 0.00 0.00 0.000
10/25/2014 2:33:06a 340 2 3 22 39 77.7 64.9 30.03 1.00 0.0 0 0.00 0.00 0.00 0.000
10/25/2014 2:34:06a 340 0 3 22 39 77.7 64.9 30.03 1.00 0.0 0 0.00 0.00 0.00 0.000
10/25/2014 2:35:06a 340 1 3 22 38 77.7 64.9 30.03 1.00 0.0 0 0.00 0.00 0.00 0.000
10/25/2014 2:36:06a 340 1 3 22 38 77.7 64.9 30.03 1.00 0.0 0 0.00 0.00 0.00 0.000
10/25/2014 2:37:06a 340 0 3 22 39 77.7 64.8 30.03 1.00 0.0 0 0.00 0.00 0.00 0.000
10/25/2014 2:38:06a 340 0 3 22 39 77.7 64.8 30.03 1.00 0.0 0 0.00 0.00 0.00 0.000
10/25/2014 2:39:06a 340 1 3 22 39 77.7 64.7 30.03 1.00 0.0 0 0.00 0.00 0.00 0.000
10/25/2014 2:40:07a 340 3 3 22 39 77.7 64.6 30.03 1.00 0.0 0 0.00 0.00 0.00 0.000
10/25/2014 2:41:07a 340 3 4 22 38 77.7 64.5 30.03 1.00 0.0 0 0.00 0.00 0.00 0.000
10/25/2014 2:42:07a 340 2 4 22 39 77.5 64.4 30.03 1.00 0.0 0 0.00 0.00 0.00 0.000
10/25/2014 2:43:07a 340 2 4 22 39 77.5 64.4 30.03 1.00 0.0 0 0.00 0.00 0.00 0.000
10/25/2014 2:44:08a 340 0 4 22 39 77.5 64.4 30.03 1.00 0.0 0 0.00 0.00 0.00 0.000
10/25/2014 2:45:08a 340 0 4 22 39 77.5 64.4 30.03 1.00 0.0 0 0.00 0.00 0.00 0.000
10/25/2014 2:46:08a 340 1 4 22 39 77.5 64.4 30.03 1.00 0.0 0 0.00 0.00 0.00 0.000
10/25/2014 2:47:11a 340 1 4 22 40 77.5 64.5 30.03 1.00 0.0 0 0.00 0.00 0.00 0.000
10/25/2014 2:48:14a 340 2 4 22 40 77.5 64.5 30.02 1.00 0.0 0 0.00 0.00 0.00 0.000
10/25/2014 2:49:14a 340 0 2 22 40 77.5 64.6 30.02 1.00 0.0 0 0.00 0.00 0.00 0.000
10/25/2014 2:50:14a 340 1 2 22 40 77.5 64.6 30.02 1.00 0.0 0 0.00 0.00 0.00 0.000
10/25/2014 2:51:14a 340 0 2 22 40 77.5 64.7 30.02 1.00 0.0 0 0.00 0.00 0.00 0.000
10/25/2014 2:52:14a 340 0 2 22 40 77.5 64.6 30.02 1.00 0.0 0 0.00 0.00 0.00 0.000
10/25/2014 2:53:14a 340 0 2 22 40 77.5 64.6 30.02 1.00 0.0 0 0.00 0.00 0.00 0.000
10/25/2014 2:54:15a 340 0 2 22 40 77.5 64.6 30.02 1.00 0.0 0 0.00 0.00 0.00 0.000
10/25/2014 2:55:15a 340 0 2 22 40 77.3 64.6 30.02 1.00 0.0 0 0.00 0.00 0.00 0.000
10/25/2014 2:56:15a 340 1 2 22 40 77.3 64.6 30.02 1.00 0.0 0 0.00 0.00 0.00 0.000
10/25/2014 2:57:15a 340 0 2 22 41 77.3 64.6 30.02 1.00 0.0 0 0.00 0.00 0.00 0.000
10/25/2014 2:58:15a 340 0 2 22 41 77.3 64.6 30.02 1.00 0.0 0 0.00 0.00 0.00 0.000
10/25/2014 2:59:15a 340 0 2 22 41 77.3 64.5 30.02 1.00 0.0 0 0.00 0.00 0.00 0.000
10/25/2014 3:00:15a 340 0 2 22 41 77.3 64.6 30.02 1.00 0.0 0 0.00 0.00 0.00 0.000
10/25/2014 3:01:15a 340 0 2 22 41 77.3 64.7 30.02 1.00 0.0 0 0.00 0.00 0.00 0.000
10/25/2014 3:02:15a 340 0 2 22 41 77.3 64.8 30.02 1.00 0.0 0 0.00 0.00 0.00 0.000
10/25/2014 3:03:15a 340 0 2 22 41 77.3 64.8 30.02 1.00 0.0 0 0.00 0.00 0.00 0.000
10/25/2014 3:04:15a 340 1 1 22 41 77.3 64.9 30.02 1.00 0.0 0 0.00 0.00 0.00 0.000
10/25/2014 3:05:15a 340 0 1 22 41 77.3 64.9 30.02 1.00 0.0 0 0.00 0.00 0.00 0.000
10/25/2014 3:06:15a 340 0 1 22 41 77.3 65.0 30.02 1.00 0.0 0 0.00 0.00 0.00 0.000
10/25/2014 3:07:15a 340 0 1 22 41 77.3 65.0 30.02 1.00 0.0 0 0.00 0.00 0.00 0.000
10/25/2014 3:08:15a 340 0 1 22 41 77.3 65.0 30.02 1.00 0.0 0 0.00 0.00 0.00 0.000
10/25/2014 3:09:15a 340 0 1 22 41 77.3 64.9 30.02 1.00 0.0 0 0.00 0.00 0.00 0.000
10/25/2014 3:10:16a 340 1 1 22 42 77.2 64.8 30.02 1.00 0.0 0 0.00 0.00 0.00 0.000
10/25/2014 3:11:16a 340 1 2 22 42 77.2 64.8 30.02 1.00 0.0 0 0.00 0.00 0.00 0.000
10/25/2014 3:12:16a 340 2 2 22 42 77.2 64.7 30.02 1.00 0.0 0 0.00 0.00 0.00 0.000
10/25/2014 3:13:16a 340 1 3 22 41 77.2 64.7 30.02 1.00 0.0 0 0.00 0.00 0.00 0.000
10/25/2014 3:14:16a 340 0 3 22 42 77.2 64.7 30.02 1.00 0.0 0 0.00 0.00 0.00 0.000
10/25/2014 3:15:16a 340 2 3 22 41 77.2 64.7 30.02 1.00 0.0 0 0.00 0.00 0.00 0.000
10/25/2014 3:16:16a 340 2 3 22 42 77.2 64.8 30.02 1.00 0.0 0 0.00 0.00 0.00 0.000
10/25/2014 3:17:22a 340 1 3 22 41 77.2 65.0 30.02 1.00 0.0 0 0.00 0.00 0.00 0.000
10/25/2014 3:18:22a 340 2 2 22 41 77.2 65.2 30.01 1.00 0.0 0 0.00 0.00 0.00 0.000
10/25/2014 3:19:22a 340 2 3 22 40 77.2 65.2 30.01 1.00 0.0 0 0.00 0.00 0.00 0.000
10/25/2014 3:20:22a 340 0 3 22 39 77.2 65.0 30.02 1.00 0.0 0 0.00 0.00 0.00 0.000
10/25/2014 3:21:22a 340 2 3 22 40 77.2 64.6 30.02 1.00 0.0 0 0.00 0.00 0.00 0.000
10/25/2014 3:22:22a 340 3 3 22 40 77.2 64.3 30.02 1.00 0.0 0 0.00 0.00 0.00 0.000
10/25/2014 3:23:22a 340 3 3 22 40 77.2 64.0 30.02 1.00 0.0 0 0.00 0.00 0.00 0.000
10/25/2014 3:24:22a 340 3 4 22 41 77.0 63.9 30.02 1.00 0.0 0 0.00 0.00 0.00 0.000
10/25/2014 3:25:22a 340 3 4 23 41 77.0 63.9 30.02 1.00 0.0 0 0.00 0.00 0.00 0.000
10/25/2014 3:26:22a 340 3 4 23 42 77.0 63.9 30.02 1.00 0.0 0 0.00 0.00 0.00 0.000
10/25/2014 3:27:22a 340 3 4 23 42 77.0 63.9 30.02 1.00 0.0 0 0.00 0.00 0.00 0.000
10/25/2014 3:28:25a 340 3 4 23 42 77.0 63.9 30.02 1.00 0.0 0 0.00 0.00 0.00 0.000
10/25/2014 3:29:26a 340 2 4 23 42 77.0 64.0 30.02 1.00 0.0 0 0.00 0.00 0.00 0.000
10/25/2014 3:30:26a 340 2 4 23 42 77.0 64.1 30.02 1.00 0.0 0 0.00 0.00 0.00 0.000
10/25/2014 3:31:29a 340 1 4 23 42 77.0 64.2 30.02 1.00 0.0 0 0.00 0.00 0.00 0.000
10/25/2014 3:32:29a 340 2 4 23 42 77.0 64.3 30.02 1.00 0.0 0 0.00 0.00 0.00 0.000
10/25/2014 3:33:29a 340 2 2 23 42 77.0 64.4 30.01 1.00 0.0 0 0.00 0.00 0.00 0.000
10/25/2014 3:34:29a 340 2 3 23 42 77.0 64.5 30.01 1.00 0.0 0 0.00 0.00 0.00 0.000
10/25/2014 3:35:29a 340 0 3 23 41 77.0 64.6 30.01 1.00 0.0 0 0.00 0.00 0.00 0.000
10/25/2014 3:36:29a 340 0 3 23 41 77.0 64.7 30.01 1.00 0.0 0 0.00 0.00 0.00 0.000
10/25/2014 3:37:29a 340 0 3 23 41 77.0 64.7 30.01 1.00 0.0 0 0.00 0.00 0.00 0.000
10/25/2014 3:38:29a 340 2 3 23 41 77.0 64.7 30.01 1.00 0.0 0 0.00 0.00 0.00 0.000
10/25/2014 3:39:29a 340 2 3 23 41 77.0 64.7 30.01 1.00 0.0 0 0.00 0.00 0.00 0.000
10/25/2014 3:40:29a 340 1 3 23 41 76.8 64.7 30.01 1.00 0.0 0 0.00 0.00 0.00 0.000
10/25/2014 3:41:29a 340 3 3 23 41 76.8 64.6 30.01 1.00 0.0 0 0.00 0.00 0.00 0.000
10/25/2014 3:42:29a 340 3 3 23 41 76.8 64.6 30.01 1.00 0.0 0 0.00 0.00 0.00 0.000
10/25/2014 3:43:29a 340 3 3 23 41 76.8 64.6 30.01 1.00 0.0 0 0.00 0.00 0.00 0.000
10/25/2014 3:44:29a 340 2 3 23 41 76.8 64.6 30.01 1.00 0.0 0 0.00 0.00 0.00 0.000
10/25/2014 3:45:29a 340 0 3 23 41 76.8 64.6 30.01 1.00 0.0 0 0.00 0.00 0.00 0.000
10/25/2014 3:46:29a 340 0 3 23 41 76.8 64.6 30.01 1.00 0.0 0 0.00 0.00 0.00 0.000
10/25/2014 3:47:30a 340 0 3 23 41 76.8 64.6 30.01 1.00 0.0 0 0.00 0.00 0.00 0.000
10/25/2014 3:48:30a 340 2 2 23 41 76.8 64.6 30.01 1.00 0.0 0 0.00 0.00 0.00 0.000
10/25/2014 3:49:30a 340 2 3 23 41 76.8 64.4 30.02 1.00 0.0 0 0.00 0.00 0.00 0.000
10/25/2014 3:50:30a 340 1 3 23 41 76.8 64.2 30.01 1.00 0.0 0 0.00 0.00 0.00 0.000
10/25/2014 3:51:31a 340 2 3 23 41 76.8 63.9 30.01 1.00 0.0 0 0.00 0.00 0.00 0.000
10/25/2014 3:52:31a 340 2 3 23 41 76.8 63.8 30.02 1.00 0.0 0 0.00 0.00 0.00 0.000
10/25/2014 3:53:31a 340 0 3 23 41 76.8 63.6 30.01 1.00 0.0 0 0.00 0.00 0.00 0.000
10/25/2014 3:54:31a 340 1 3 23 43 76.8 63.6 30.01 1.00 0.0 0 0.00 0.00 0.00 0.000
10/25/2014 3:55:31a 340 2 3 23 43 76.6 63.6 30.01 1.00 0.0 0 0.00 0.00 0.00 0.000
10/25/2014 3:56:31a 340 2 3 23 42 76.6 63.6 30.01 1.00 0.0 0 0.00 0.00 0.00 0.000
10/25/2014 3:57:31a 340 3 4 23 42 76.6 63.5 30.01 1.00 0.0 0 0.00 0.00 0.00 0.000
10/25/2014 3:58:31a 340 4 4 23 42 76.6 63.5 30.01 1.00 0.0 0 0.00 0.00 0.00 0.000
10/25/2014 3:59:35a 340 3 5 23 42 76.6 63.4 30.01 1.00 0.0 0 0.00 0.00 0.00 0.000
10/25/2014 4:00:35a 340 2 5 23 42 76.6 63.4 30.01 1.00 0.0 0 0.00 0.00 0.00 0.000
10/25/2014 4:01:35a 340 2 5 23 42 76.6 63.4 30.01 1.00 0.0 0 0.00 0.00 0.00 0.000
10/25/2014 4:02:35a 340 3 5 23 42 76.6 63.4 30.01 1.00 0.0 0 0.00 0.00 0.00 0.000
10/25/2014 4:03:38a 340 1 2 23 42 76.6 63.4 30.01 1.00 0.0 0 0.00 0.00 0.00 0.000
10/25/2014 4:04:38a 340 2 2 23 42 76.6 63.5 30.01 1.00 0.0 0 0.00 0.00 0.00 0.000
10/25/2014 4:05:38a 340 2 3 23 43 76.6 63.5 30.01 1.00 0.0 0 0.00 0.00 0.00 0.000
10/25/2014 4:06:38a 340 2 3 23 43 76.6 63.5 30.01 1.00 0.0 0 0.00 0.00 0.00 0.000
10/25/2014 4:07:38a 340 3 3 23 42 76.6 63.5 30.01 1.00 0.0 0 0.00 0.00 0.00 0.000
10/25/2014 4:08:38a 340 1 3 23 42 76.6 63.4 30.01 1.00 0.0 0 0.00 0.00 0.00 0.000
10/25/2014 4:09:38a 340 0 3 23 42 76.6 63.4 30.01 1.00 0.0 0 0.00 0.00 0.00 0.000
10/25/2014 4:10:38a 340 3 3 23 43 76.6 63.3 30.01 1.00 0.0 0 0.00 0.00 0.00 0.000
10/25/2014 4:11:38a 340 4 4 23 43 76.6 63.3 30.01 1.00 0.0 0 0.00 0.00 0.00 0.000
10/25/2014 4:12:39a 340 3 4 23 43 76.5 63.3 30.01 1.00 0.0 0 0.00 0.00 0.00 0.000
10/25/2014 4:13:39a 340 3 4 23 42 76.5 63.3 30.01 1.00 0.0 0 0.00 0.00 0.00 0.000
10/25/2014 4:14:39a 340 2 4 23 43 76.5 63.3 30.01 1.00 0.0 0 0.00 0.00 0.00 0.000
10/25/2014 4:15:39a 340 2 4 23 43 76.5 63.4 30.01 1.00 0.0 0 0.00 0.00 0.00 0.000
10/25/2014 4:16:39a 340 2 4 23 42 76.5 63.4 30.01 1.00 0.0 0 0.00 0.00 0.00 0.000
10/25/2014 4:17:39a 340 2 4 23 43 76.5 63.5 30.01 1.00 0.0 0 0.00 0.00 0.00 0.000
10/25/2014 4:18:39a 340 0 1 23 43 76.5 63.6 30.01 1.00 0.0 0 0.00 0.00 0.00 0.000
10/25/2014 4:19:39a 340 0 1 23 43 76.5 63.7 30.01 1.00 0.0 0 0.00 0.00 0.00 0.000
10/25/2014 4:20:39a 340 0 1 23 43 76.5 63.8 30.01 1.00 0.0 0 0.00 0.00 0.00 0.000
10/25/2014 4:21:39a 340 0 1 23 43 76.5 63.9 30.01 1.00 0.0 0 0.00 0.00 0.00 0.000
10/25/2014 4:22:39a 340 0 1 23 43 76.5 64.0 30.01 1.00 0.0 0 0.00 0.00 0.00 0.000
10/25/2014 4:23:39a 340 2 2 23 43 76.5 64.1 30.01 1.00 0.0 0 0.00 0.00 0.00 0.000
10/25/2014 4:24:39a 340 1 2 23 43 76.5 64.1 30.01 1.00 0.0 0 0.00 0.00 0.00 0.000
10/25/2014 4:25:39a 340 0 2 23 43 76.5 64.0 30.01 1.00 0.0 0 0.00 0.00 0.00 0.000
10/25/2014 4:26:40a 340 0 2 23 43 76.5 63.9 30.01 1.00 0.0 0 0.00 0.00 0.00 0.000
10/25/2014 4:27:40a 340 0 2 23 43 76.3 63.8 30.01 1.00 0.0 0 0.00 0.00 0.00 0.000
10/25/2014 4:28:40a 340 0 2 23 43 76.3 63.6 30.01 1.00 0.0 0 0.00 0.00 0.00 0.000
10/25/2014 4:29:40a 340 0 2 23 44 76.3 63.5 30.01 1.00 0.0 0 0.00 0.00 0.00 0.000
10/25/2014 4:30:43a 340 0 2 23 44 76.3 63.4 30.01 1.00 0.0 0 0.00 0.00 0.00 0.000
10/25/2014 4:31:43a 340 0 2 23 44 76.3 63.3 30.01 1.00 0.0 0 0.00 0.00 0.00 0.000
10/25/2014 4:32:43a 340 0 2 23 44 76.3 63.2 30.01 1.00 0.0 0 0.00 0.00 0.00 0.000
10/25/2014 4:33:43a 340 0 0 23 44 76.3 63.1 30.01 1.00 0.0 0 0.00 0.00 0.00 0.000
10/25/2014 4:34:43a 340 0 1 23 44 76.3 63.0 30.01 1.00 0.0 0 0.00 0.00 0.00 0.000
10/25/2014 4:35:43a 340 0 1 23 44 76.3 62.9 30.01 1.00 0.0 0 0.00 0.00 0.00 0.000
10/25/2014 4:36:43a 340 0 1 23 44 76.3 62.7 30.01 1.00 0.0 0 0.00 0.00 0.00 0.000
10/25/2014 4:37:43a 340 0 1 23 45 76.3 62.6 30.01 1.00 0.0 0 0.00 0.00 0.00 0.000
10/25/2014 4:38:43a 340 0 1 23 45 76.3 62.5 30.01 1.00 0.0 0 0.00 0.00 0.00 0.000
10/25/2014 4:39:44a 340 0 1 23 46 76.3 62.5 30.01 1.00 0.0 0 0.00 0.00 0.00 0.000
10/25/2014 4:40:50a 340 1 1 23 46 76.3 62.4 30.01 1.00 0.0 0 0.00 0.00 0.00 0.000
10/25/2014 4:41:50a 340 2 2 23 45 76.1 62.3 30.01 1.00 0.0 0 0.00 0.00 0.00 0.000
10/25/2014 4:42:50a 340 0 2 23 44 76.1 62.2 30.02 1.00 0.0 0 0.00 0.00 0.00 0.000
10/25/2014 4:43:50a 340 0 2 23 44 76.1 62.0 30.02 1.00 0.0 0 0.00 0.00 0.00 0.000
10/25/2014 4:44:50a 340 0 2 23 44 76.1 61.9 30.02 1.00 0.0 0 0.00 0.00 0.00 0.000
10/25/2014 4:45:53a 340 0 2 23 45 76.1 61.8 30.02 1.00 0.0 0 0.00 0.00 0.00 0.000
10/25/2014 4:46:53a 340 0 2 23 45 76.1 61.7 30.02 1.00 0.0 0 0.00 0.00 0.00 0.000
10/25/2014 4:47:53a 340 0 2 23 46 76.1 61.7 30.02 1.00 0.0 0 0.00 0.00 0.00 0.000
10/25/2014 4:48:53a 340 0 1 23 46 76.1 61.7 30.02 1.00 0.0 0 0.00 0.00 0.00 0.000
10/25/2014 4:49:53a 340 0 1 23 46 76.1 61.8 30.02 1.00 0.0 0 0.00 0.00 0.00 0.000
10/25/2014 4:50:53a 340 1 1 23 46 76.1 61.9 30.02 1.00 0.0 0 0.00 0.00 0.00 0.000
10/25/2014 4:51:53a 340 0 1 23 46 76.1 62.0 30.02 1.00 0.0 0 0.00 0.00 0.00 0.000
10/25/2014 4:52:53a 340 1 2 23 46 76.1 62.0 30.02 1.00 0.0 0 0.00 0.00 0.00 0.000
10/25/2014 4:53:53a 340 0 2 23 45 76.1 61.9 30.02 1.00 0.0 0 0.00 0.00 0.00 0.000
10/25/2014 4:54:53a 340 0 2 23 45 76.1 61.7 30.02 1.00 0.0 0 0.00 0.00 0.00 0.000
10/25/2014 4:55:54a 340 0 2 23 45 76.1 61.6 30.02 1.00 0.0 0 0.00 0.00 0.00 0.000
10/25/2014 4:56:54a 340 0 2 23 46 75.9 61.6 30.02 1.00 0.0 0 0.00 0.00 0.00 0.000
10/25/2014 4:57:54a 340 0 2 23 46 75.9 61.6 30.02 1.00 0.0 0 0.00 0.00 0.00 0.000
10/25/2014 4:58:54a 340 0 2 23 46 75.9 61.7 30.02 1.00 0.0 0 0.00 0.00 0.00 0.000
10/25/2014 4:59:54a 340 0 2 23 46 75.9 61.7 30.02 1.00 0.0 0 0.00 0.00 0.00 0.000
10/25/2014 5:00:54a 340 0 2 23 47 75.9 61.9 30.02 1.00 0.0 0 0.00 0.00 0.00 0.000
10/25/2014 5:01:54a 340 0 2 23 47 75.9 62.0 30.02 1.00 0.0 0 0.00 0.00 0.00 0.000
10/25/2014 5:02:54a 340 0 2 23 47 75.9 62.1 30.02 1.00 0.0 0 0.00 0.00 0.00 0.000
10/25/2014 5:03:54a 340 0 0 23 46 75.9 62.2 30.02 1.00 0.0 0 0.00 0.00 0.00 0.000
10/25/2014 5:04:54a 340 0 0 23 46 75.9 62.3 30.02 1.00 0.0 0 0.00 0.00 0.00 0.000
10/25/2014 5:05:54a 340 0 1 23 46 75.9 62.4 30.02 1.00 0.0 0 0.00 0.00 0.00 0.000
10/25/2014 5:06:57a 340 0 1 23 46 75.9 62.4 30.02 1.00 0.0 0 0.00 0.00 0.00 0.000
10/25/2014 5:07:57a 340 0 1 23 45 75.9 62.4 30.02 1.00 0.0 0 0.00 0.00 0.00 0.000
10/25/2014 5:09:03a 340 0 1 23 46 75.9 62.4 30.02 1.00 0.0 0 0.00 0.00 0.00 0.000
10/25/2014 5:10:03a 340 2 2 23 46 75.9 62.5 30.02 1.00 0.0 0 0.00 0.00 0.00 0.000
10/25/2014 5:11:03a 340 3 5 23 46 75.9 62.5 30.02 1.00 0.0 0 0.00 0.00 0.00 0.000
10/25/2014 5:12:03a 340 2 5 23 46 75.9 62.6 30.02 1.00 0.0 0 0.00 0.00 0.00 0.000
10/25/2014 5:13:03a 340 1 5 23 46 75.9 62.6 30.02 1.00 0.0 0 0.00 0.00 0.00 0.000
10/25/2014 5:14:03a 340 0 5 23 46 75.8 62.7 30.02 1.00 0.0 0 0.00 0.00 0.00 0.000
10/25/2014 5:15:04a 340 0 5 23 46 75.8 62.8 30.02 1.00 0.0 0 0.00 0.00 0.00 0.000
10/25/2014 5:16:04a 340 0 5 23 46 75.8 62.9 30.02 1.00 0.0 0 0.00 0.00 0.00 0.000
10/25/2014 5:17:04a 340 0 5 23 46 75.8 62.9 30.02 1.00 0.0 0 0.00 0.00 0.00 0.000
10/25/2014 5:18:04a 340 0 5 23 46 75.8 62.9 30.02 1.00 0.0 0 0.00 0.00 0.00 0.000
10/25/2014 5:19:04a 340 0 0 23 45 75.8 62.9 30.02 1.00 0.0 0 0.00 0.00 0.00 0.000
10/25/2014 5:20:04a 340 1 2 23 45 75.8 62.8 30.03 1.00 0.0 0 0.00 0.00 0.00 0.000
10/25/2014 5:21:04a 340 1 2 23 45 75.8 62.7 30.03 1.00 0.0 0 0.00 0.00 0.00 0.000
10/25/2014 5:22:04a 340 1 2 23 45 75.8 62.7 30.02 1.00 0.0 0 0.00 0.00 0.00 0.000
10/25/2014 5:23:13a 340 0 3 23 45 75.8 62.7 30.03 1.00 0.0 0 0.00 0.00 0.00 0.000
10/25/2014 5:24:13a 340 0 3 23 45 75.8 62.8 30.03 1.00 0.0 0 0.00 0.00 0.00 0.000
10/25/2014 5:25:16a 340 0 3 23 45 75.8 62.9 30.03 1.00 0.0 0 0.00 0.00 0.00 0.000
10/25/2014 5:26:16a 340 0 3 23 45 75.8 63.0 30.03 1.00 0.0 0 0.00 0.00 0.00 0.000
10/25/2014 5:27:16a 340 0 3 23 45 75.8 63.2 30.03 1.00 0.0 0 0.00 0.00 0.00 0.000
10/25/2014 5:28:16a 340 0 3 23 45 75.8 63.3 30.03 1.00 0.0 0 0.00 0.00 0.00 0.000
10/25/2014 5:29:16a 340 1 3 23 45 75.8 63.4 30.03 1.00 0.0 0 0.00 0.00 0.00 0.000
10/25/2014 5:30:16a 340 2 3 23 44 75.6 63.5 30.02 1.00 0.0 0 0.00 0.00 0.00 0.000
10/25/2014 5:31:16a 340 2 4 23 44 75.6 63.5 30.02 1.00 0.0 0 0.00 0.00 0.00 0.000
10/25/2014 5:32:16a 340 1 4 23 44 75.6 63.6 30.02 1.00 0.0 0 0.00 0.00 0.00 0.000
10/25/2014 5:33:16a 340 0 4 23 44 75.6 63.6 30.02 1.00 0.0 0 0.00 0.00 0.00 0.000
10/25/2014 5:34:16a 340 1 2 23 44 75.6 63.7 30.02 1.00 0.0 0 0.00 0.00 0.00 0.000
10/25/2014 5:35:17a 340 1 2 23 44 75.6 63.8 30.02 1.00 0.0 0 0.00 0.00 0.00 0.000
10/25/2014 5:36:17a 340 2 3 23 44 75.6 63.9 30.02 1.00 0.0 0 0.00 0.00 0.00 0.000
10/25/2014 5:37:23a 340 3 4 23 43 75.6 63.9 30.02 1.00 0.0 0 0.00 0.00 0.00 0.000
10/25/2014 5:38:23a 340 2 4 23 43 75.6 64.0 30.02 1.00 0.0 0 0.00 0.00 0.00 0.000
10/25/2014 5:39:23a 340 3 4 23 43 75.6 64.1 30.02 1.00 0.0 0 0.00 0.00 0.00 0.000
10/25/2014 5:40:23a 340 3 4 23 43 75.6 64.1 30.02 1.00 0.0 0 0.00 0.00 0.00 0.000
10/25/2014 5:41:23a 340 2 4 23 43 75.6 64.2 30.02 1.00 0.0 0 0.00 0.00 0.00 0.000
10/25/2014 5:42:23a 340 0 4 23 42 75.6 64.3 30.02 1.00 0.0 0 0.00 0.00 0.00 0.000
10/25/2014 5:43:23a 340 1 4 23 42 75.6 64.4 30.02 1.00 0.0 0 0.00 0.00 0.00 0.000
10/25/2014 5:44:23a 340 1 4 23 42 75.6 64.4 30.02 1.00 0.0 0 0.00 0.00 0.00 0.000
10/25/2014 5:45:29a 340 0 4 23 42 75.6 64.4 30.02 1.00 0.0 0 0.00 0.00 0.00 0.000
10/25/2014 5:46:32a 340 0 4 23 42 75.6 64.6 30.02 1.00 0.0 0 0.00 0.00 0.00 0.000
10/25/2014 5:47:32a 340 0 4 23 42 75.4 64.6 30.02 1.00 0.0 0 0.00 0.00 0.00 0.000
10/25/2014 5:48:32a 340 0 1 23 42 75.4 64.7 30.02 1.00 0.0 0 0.00 0.00 0.00 0.000
10/25/2014 5:49:32a 340 0 1 23 42 75.4 64.6 30.02 1.00 0.0 0 0.00 0.00 0.00 0.000
10/25/2014 5:50:32a 340 1 1 23 43 75.4 64.5 30.02 1.00 0.0 0 0.00 0.00 0.00 0.000
10/25/2014 5:51:32a 340 1 1 23 43 75.4 64.4 30.02 1.00 0.0 0 0.00 0.00 0.00 0.000
10/25/2014 5:52:32a 340 1 1 23 43 75.4 64.4 30.02 1.00 0.0 0 0.00 0.00 0.00 0.000
10/25/2014 5:53:32a 340 0 2 23 43 75.4 64.3 30.02 1.00 0.0 0 0.00 0.00 0.00 0.000
10/25/2014 5:54:32a 340 1 2 23 43 75.4 64.3 30.02 1.00 0.0 0 0.00 0.00 0.00 0.000
10/25/2014 5:55:33a 340 0 2 23 43 75.4 64.4 30.02 1.00 0.0 0 0.00 0.00 0.00 0.000
10/25/2014 5:56:33a 340 0 2 23 43 75.4 64.5 30.02 1.00 0.0 0 0.00 0.00 0.00 0.000
10/25/2014 5:57:33a 340 1 2 23 42 75.4 64.6 30.02 1.00 0.0 0 0.00 0.00 0.00 0.000
10/25/2014 5:58:33a 340 0 2 23 43 75.4 64.6 30.02 1.00 0.0 0 0.00 0.00 0.00 0.000
10/25/2014 5:59:33a 340 0 2 23 43 75.4 64.6 30.02 1.00 0.0 0 0.00 0.00 0.00 0.000
10/25/2014 6:00:33a 340 0 2 23 43 75.4 64.6 30.02 1.00 0.0 0 0.00 0.00 0.00 0.000
10/25/2014 6:01:39a 340 0 2 23 43 75.4 64.5 30.02 1.00 0.0 0 0.00 0.00 0.00 0.000
10/25/2014 6:02:39a 340 0 2 23 43 75.4 64.4 30.02 1.00 0.0 0 0.00 0.00 0.00 0.000
10/25/2014 6:03:39a 340 0 1 23 43 75.4 64.4 30.03 1.00 0.0 0 0.00 0.00 0.00 0.000
10/25/2014 6:04:39a 340 0 1 23 43 75.4 64.3 30.03 1.00 0.0 0 0.00 0.00 0.00 0.000
10/25/2014 6:05:39a 340 0 1 23 43 75.4 64.3 30.03 1.00 0.0 0 0.00 0.00 0.00 0.000
10/25/2014 6:06:43a 340 0 1 23 44 75.4 64.2 30.04 1.00 0.0 0 0.00 0.00 0.00 0.000
10/25/2014 6:07:43a 340 0 1 23 44 75.4 64.2 30.03 1.00 0.0 0 0.00 0.00 0.00 0.000
10/25/2014 6:08:43a 340 0 1 23 44 75.2 64.1 30.04 1.00 0.0 0 0.00 0.00 0.00 0.000
10/25/2014 6:09:43a 340 1 2 23 44 75.2 64.1 30.04 1.00 0.0 0 0.00 0.00 0.00 0.000
10/25/2014 6:10:43a 340 1 2 23 43 75.2 64.1 30.04 1.00 0.0 0 0.00 0.00 0.00 0.000
10/25/2014 6:11:43a 340 1 2 23 43 75.2 64.2 30.03 1.00 0.0 0 0.00 0.00 0.00 0.000
10/25/2014 6:12:49a 340 0 2 23 43 75.2 64.3 30.04 1.00 0.0 0 0.00 0.00 0.00 0.000
10/25/2014 6:13:52a 340 0 2 23 42 75.2 64.5 30.04 1.00 0.0 0 0.00 0.00 0.00 0.000
10/25/2014 6:14:52a 340 1 2 23 42 75.2 64.6 30.03 1.00 0.0 0 0.00 0.00 0.00 0.000
10/25/2014 6:15:52a 340 0 2 23 42 75.2 64.8 30.03 1.00 0.0 0 0.00 0.00 0.00 0.000
10/25/2014 6:16:52a 340 0 2 23 42 75.2 64.9 30.03 1.00 0.0 0 0.00 0.00 0.00 0.000
10/25/2014 6:17:52a 340 2 2 23 42 75.2 65.0 30.03 1.00 0.0 0 0.00 0.00 0.00 0.000
10/25/2014 6:18:52a 340 2 3 23 42 75.2 65.1 30.04 1.00 0.0 0 0.00 0.00 0.00 0.000
10/25/2014 6:19:52a 340 2 3 23 42 75.2 65.2 30.03 1.00 0.0 0 0.00 0.00 0.00 0.000
10/25/2014 6:20:55a 340 2 3 23 42 75.2 65.3 30.03 1.00 0.0 0 0.00 0.00 0.00 0.000
10/25/2014 6:21:55a 340 1 3 23 42 75.2 65.3 30.03 1.00 0.0 0 0.00 0.00 0.00 0.000
10/25/2014 6:22:55a 340 0 3 23 42 75.2 65.4 30.03 1.00 0.0 0 0.00 0.00 0.00 0.000
10/25/2014 6:23:55a 340 0 3 23 42 75.2 65.5 30.04 1.00 0.0 0 0.00 0.00 0.00 0.000
10/25/2014 6:24:55a 340 0 3 23 42 75.2 65.6 30.04 1.00 0.0 0 0.00 0.00 0.00 0.000
10/25/2014 6:25:56a 340 0 3 23 42 75.2 65.6 30.03 1.00 0.0 0 0.00 0.00 0.00 0.000
10/25/2014 6:26:56a 340 0 3 23 43 75.2 65.6 30.03 1.00 0.0 0 0.00 0.00 0.00 0.000
10/25/2014 6:27:59a 340 0 3 23 43 75.2 65.6 30.03 1.00 0.0 0 0.00 0.00 0.00 0.000
10/25/2014 6:28:59a 340 0 3 23 43 75.2 65.5 30.04 1.00 0.0 0 0.00 0.00 0.00 0.000
10/25/2014 6:29:59a 340 0 3 23 44 75.2 65.4 30.03 1.00 0.0 0 0.00 0.00 0.00 0.000
10/25/2014 6:30:59a 340 0 3 23 44 75.2 65.4 30.03 1.00 0.0 0 0.00 0.00 0.00 0.000
10/25/2014 6:31:59a 340 0 3 23 44 75.2 65.3 30.03 1.00 0.0 0 0.00 0.00 0.00 0.000
10/25/2014 6:32:59a 340 0 3 23 44 75.2 65.3 30.04 1.00 0.0 0 0.00 0.00 0.00 0.000
10/25/2014 6:33:59a 340 0 0 23 44 75.2 65.2 30.04 1.00 0.0 0 0.00 0.00 0.00 0.000
10/25/2014 6:34:59a 340 0 0 23 44 75.2 65.1 30.04 1.00 0.0 0 0.00 0.00 0.00 0.000
10/25/2014 6:35:59a 340 0 0 23 45 75.2 65.1 30.04 1.00 0.0 0 0.00 0.00 0.00 0.000
10/25/2014 6:36:59a 340 0 0 23 45 75.2 64.9 30.04 1.00 0.0 0 0.00 0.00 0.00 0.000
10/25/2014 6:37:59a 340 0 0 23 45 75.1 64.8 30.04 1.00 0.0 0 0.00 0.00 0.00 0.000
10/25/2014 6:38:59a 340 0 0 23 45 75.1 64.8 30.04 1.00 0.0 0 0.00 0.00 0.00 0.000
10/25/2014 6:39:59a 340 0 0 23 46 75.1 64.8 30.04 1.00 0.0 0 0.00 0.00 0.00 0.000
10/25/2014 6:41:02a 340 0 0 23 46 75.1 64.8 30.04 1.00 0.0 0 0.00 0.00 0.00 0.000
10/25/2014 6:42:09a 340 0 0 23 45 75.1 64.9 30.04 1.00 0.0 0 0.00 0.00 0.00 0.000
10/25/2014 6:43:12a 340 0 0 23 45 75.1 64.9 30.04 1.00 0.0 0 0.00 0.00 0.00 0.000
10/25/2014 6:44:12a 340 0 0 23 45 75.1 64.9 30.04 1.00 0.0 0 0.00 0.00 0.00 0.000
10/25/2014 6:45:12a 340 0 1 23 45 75.1 64.9 30.04 1.00 0.0 0 0.00 0.00 0.00 0.000
10/25/2014 6:46:12a 340 0 1 23 45 75.1 64.9 30.04 1.00 0.0 0 0.00 0.00 0.00 0.000
10/25/2014 6:47:12a 340 0 1 23 44 75.1 64.8 30.04 1.00 0.0 0 0.00 0.00 0.00 0.000
10/25/2014 6:48:12a 340 0 1 23 44 75.1 64.7 30.04 1.00 0.0 0 0.00 0.00 0.00 0.000
10/25/2014 6:49:12a 340 0 1 23 43 75.1 64.7 30.04 1.00 0.0 0 0.00 0.00 0.00 0.000
10/25/2014 6:50:12a 340 0 1 23 43 75.1 64.6 30.04 1.00 0.0 0 0.00 0.00 0.00 0.000
10/25/2014 6:51:12a 340 0 1 23 43 75.1 64.6 30.04 1.00 0.0 0 0.00 0.00 0.00 0.000
10/25/2014 6:52:12a 340 0 1 23 44 75.1 64.8 30.04 1.00 0.0 0 0.00 0.00 0.00 0.000
10/25/2014 6:53:12a 340 0 1 23 44 75.1 64.8 30.04 1.00 0.0 0 0.00 0.00 0.00 0.000
10/25/2014 6:54:12a 340 0 1 23 44 75.1 64.9 30.04 1.00 0.0 0 0.00 0.00 0.00 0.000
10/25/2014 6:55:13a 340 0 1 23 45 75.1 64.9 30.04 1.00 0.0 0 0.00 0.00 0.00 0.000
10/25/2014 6:56:13a 340 0 1 23 45 75.1 64.9 30.04 1.00 0.0 0 0.00 0.00 0.00 0.000
10/25/2014 6:57:13a 340 0 1 23 45 75.1 64.9 30.04 1.00 0.0 0 0.00 0.00 0.00 0.000
10/25/2014 6:58:13a 340 0 1 23 45 75.1 65.0 30.04 1.00 0.0 0 0.00 0.00 0.00 0.000
10/25/2014 6:59:16a 340 0 1 23 45 75.1 65.0 30.04 1.00 0.0 0 0.00 0.00 0.00 0.000
10/25/2014 7:00:16a 340 0 1 23 45 75.1 65.0 30.04 1.00 0.0 0 0.00 0.00 0.00 0.000
10/25/2014 7:01:16a 340 0 1 23 45 75.1 65.0 30.04 1.00 0.0 0 0.00 0.00 0.00 0.000
10/25/2014 7:02:16a 340 0 1 23 45 75.1 65.0 30.04 1.00 0.0 0 0.00 0.00 0.00 0.000
10/25/2014 7:03:16a 340 0 1 23 45 75.1 65.0 30.04 1.00 0.0 0 0.00 0.00 0.00 0.000
10/25/2014 7:04:16a 340 0 0 23 45 75.1 64.9 30.05 1.00 0.0 0 0.00 0.00 0.00 0.000
10/25/2014 7:05:16a 340 0 0 23 45 75.1 64.9 30.05 1.00 0.0 0 0.00 0.00 0.00 0.000
10/25/2014 7:06:17a 340 1 1 23 45 75.1 64.9 30.05 1.00 0.0 0 0.00 0.00 0.00 0.000
10/25/2014 7:07:17a 340 0 1 23 45 75.1 64.9 30.05 1.00 0.0 0 0.00 0.00 0.00 0.000
10/25/2014 7:08:20a 340 1 1 23 45 75.1 64.9 30.05 1.00 0.0 5 0.00 0.00 0.00 0.000
10/25/2014 7:09:26a 340 1 1 24 45 75.1 64.9 30.05 1.00 0.0 5 0.00 0.00 0.00 0.000
10/25/2014 7:10:26a 340 0 1 24 45 75.1 65.0 30.05 1.00 0.0 7 0.00 0.00 0.00 0.000
10/25/2014 7:11:26a 340 0 1 24 45 75.1 65.0 30.05 1.00 0.0 9 0.00 0.00 0.00 0.000
10/25/2014 7:12:26a 340 0 1 24 44 75.1 65.1 30.05 1.00 0.0 9 0.00 0.00 0.00 0.000
10/25/2014 7:13:26a 340 0 1 24 44 75.1 65.2 30.05 1.00 0.0 9 0.00 0.00 0.00 0.000
10/25/2014 7:14:26a 340 0 1 24 44 75.1 65.3 30.05 1.00 0.0 11 0.00 0.00 0.00 0.000
10/25/2014 7:15:26a 340 0 1 24 44 75.1 65.3 30.05 1.00 0.0 11 0.00 0.00 0.00 0.000
10/25/2014 7:16:27a 340 0 1 24 44 75.1 65.3 30.05 1.00 0.0 16 0.00 0.00 0.00 0.000
10/25/2014 7:17:27a 340 0 1 24 44 75.1 65.3 30.05 1.00 0.0 16 0.00 0.00 0.00 0.000
10/25/2014 7:18:27a 340 0 0 24 44 75.1 65.2 30.05 1.00 0.0 18 0.00 0.00 0.00 0.000
10/25/2014 7:19:27a 340 0 0 24 44 75.1 65.1 30.05 1.00 0.0 19 0.00 0.00 0.00 0.000
10/25/2014 7:20:27a 340 0 0 24 44 75.1 65.1 30.05 1.00 0.0 21 0.00 0.00 0.00 0.000
10/25/2014 7:21:27a 340 0 0 24 44 75.1 65.1 30.05 1.00 0.0 23 0.00 0.00 0.00 0.000
10/25/2014 7:22:27a 340 0 0 24 44 75.1 65.1 30.05 1.00 0.0 25 0.00 0.00 0.00 0.000
10/25/2014 7:23:27a 340 0 1 24 44 75.1 65.1 30.05 1.00 0.0 25 0.00 0.00 0.00 0.000
10/25/2014 7:24:27a 340 0 1 24 44 75.1 65.1 30.05 1.00 0.0 26 0.00 0.00 0.00 0.000
10/25/2014 7:25:27a 340 0 1 24 43 74.9 65.2 30.05 1.00 0.0 28 0.00 0.00 0.00 0.000
10/25/2014 7:26:27a 340 0 1 24 43 74.9 65.2 30.05 1.00 0.0 30 0.00 0.00 0.00 0.000
10/25/2014 7:27:27a 340 0 1 24 43 74.9 65.3 30.05 1.00 0.0 33 0.00 0.00 0.00 0.000
10/25/2014 7:28:27a 340 0 1 24 43 74.9 65.4 30.05 1.00 0.0 35 0.00 0.00 0.00 0.000
10/25/2014 7:29:27a 340 0 1 24 43 74.9 65.5 30.05 1.00 0.0 37 0.00 0.00 0.00 0.000
10/25/2014 7:30:27a 340 1 1 24 43 74.9 65.6 30.06 1.00 0.0 39 0.00 0.00 0.00 0.000
10/25/2014 7:31:27a 340 0 1 24 43 74.9 65.7 30.06 1.00 0.0 39 0.00 0.00 0.00 0.000
10/25/2014 7:32:28a 340 0 1 24 43 74.9 65.8 30.06 1.00 0.0 39 0.00 0.00 0.00 0.000
10/25/2014 7:33:28a 340 0 0 24 43 74.9 65.9 30.06 1.00 0.0 40 0.00 0.00 0.00 0.000
10/25/2014 7:34:28a 340 0 0 24 44 74.9 66.0 30.06 1.00 0.0 42 0.00 0.00 0.00 0.000
10/25/2014 7:35:37a 340 0 0 24 44 74.9 66.1 30.06 1.00 0.0 42 0.00 0.00 0.00 0.000
10/25/2014 7:36:37a 340 0 0 24 44 74.9 66.2 30.06 1.00 0.0 44 0.00 0.00 0.00 0.000
10/25/2014 7:37:37a 340 1 1 24 43 74.9 66.2 30.06 1.00 0.0 46 0.00 0.00 0.00 0.000
10/25/2014 7:38:37a 340 0 1 24 43 74.9 66.3 30.06 1.00 0.0 46 0.00 0.00 0.00 0.000
10/25/2014 7:39:37a 340 0 1 24 43 74.9 66.5 30.06 1.00 0.0 62 0.00 0.00 0.00 0.000
10/25/2014 7:40:37a 340 0 1 24 42 74.9 66.6 30.05 1.00 0.0 56 0.00 0.00 0.00 0.000
10/25/2014 7:41:37a 340 0 1 24 42 74.9 66.8 30.05 1.00 0.0 47 0.00 0.00 0.00 0.000
10/25/2014 7:42:37a 340 0 1 24 42 74.9 67.0 30.06 1.00 0.0 49 0.00 0.00 0.00 0.000
10/25/2014 7:43:37a 340 0 1 24 43 74.9 67.1 30.06 1.00 0.0 51 0.00 0.00 0.00 0.000
10/25/2014 7:44:37a 340 0 1 24 44 74.9 67.1 30.06 1.00 0.0 56 0.00 0.00 0.00 0.000
10/25/2014 7:45:37a 340 0 1 24 45 74.9 67.1 30.06 1.00 0.0 58 0.00 0.00 0.00 0.000
10/25/2014 7:46:41a 340 0 1 24 45 74.9 67.0 30.06 1.00 0.0 60 0.00 0.00 0.00 0.000
10/25/2014 7:47:41a 340 0 1 24 45 74.9 67.0 30.06 1.00 0.0 58 0.00 0.00 0.00 0.000
10/25/2014 7:48:41a 340 0 0 24 45 74.9 67.0 30.06 1.00 0.0 56 0.00 0.00 0.00 0.000
10/25/2014 7:49:41a 340 0 0 24 44 74.9 67.0 30.06 1.00 0.0 53 0.00 0.00 0.00 0.000
10/25/2014 7:50:41a 340 0 1 24 44 74.9 67.0 30.06 1.00 0.0 49 0.00 0.00 0.00 0.000
10/25/2014 7:51:41a 340 0 1 24 44 74.9 67.1 30.06 1.00 0.0 47 0.00 0.00 0.00 0.000
10/25/2014 7:52:41a 340 0 1 24 44 74.9 67.3 30.06 1.00 0.0 44 0.00 0.00 0.00 0.000
10/25/2014 7:53:41a 340 0 1 24 44 74.9 67.4 30.06 1.00 0.0 46 0.00 0.00 0.00 0.000
10/25/2014 7:54:41a 340 0 1 24 44 74.9 67.5 30.06 1.00 0.0 51 0.00 0.00 0.00 0.000
10/25/2014 7:55:41a 340 0 1 24 44 74.9 67.6 30.06 1.00 0.0 58 0.00 0.00 0.00 0.000
10/25/2014 7:56:41a 340 0 1 24 44 74.9 67.7 30.06 1.00 0.0 60 0.00 0.00 0.00 0.000
10/25/2014 7:57:41a 340 0 1 24 44 74.9 67.8 30.06 1.00 0.0 60 0.00 0.00 0.00 0.000
10/25/2014 7:58:47a 340 0 1 24 43 74.9 67.9 30.06 1.00 0.0 58 0.00 0.00 0.00 0.000
10/25/2014 7:59:47a 340 0 1 24 43 74.9 67.9 30.06 1.00 0.0 56 0.00 0.00 0.00 0.000
10/25/2014 8:00:48a 340 0 1 24 43 74.9 68.0 30.06 1.00 0.0 56 0.00 0.00 0.00 0.000
10/25/2014 8:01:48a 340 0 1 24 43 74.9 68.0 30.06 1.00 0.0 60 0.00 0.00 0.00 0.000
10/25/2014 8:02:51a 340 0 1 24 43 74.9 68.1 30.06 1.00 0.0 60 0.00 0.00 0.00 0.000
10/25/2014 8:03:51a 340 0 0 23 43 74.9 68.1 30.07 1.00 0.0 65 0.00 0.00 0.00 0.000
10/25/2014 8:04:51a 340 0 0 23 43 74.9 68.1 30.07 1.00 0.0 67 0.00 0.00 0.00 0.000
10/25/2014 8:05:51a 340 0 0 23 43 74.9 68.2 30.07 1.00 0.0 69 0.00 0.00 0.00 0.000
10/25/2014 8:06:51a 340 0 0 23 43 74.9 68.2 30.07 1.00 0.0 70 0.00 0.00 0.00 0.000
10/25/2014 8:07:51a 340 0 0 23 42 74.9 68.3 30.07 1.00 0.0 70 0.00 0.00 0.00 0.000
10/25/2014 8:08:51a 340 0 0 23 42 74.9 68.4 30.07 1.00 0.0 69 0.00 0.00 0.00 0.000
10/25/2014 8:09:51a 340 0 0 23 42 74.9 68.5 30.07 1.00 0.0 69 0.00 0.00 0.00 0.000
10/25/2014 8:10:51a 340 0 0 23 43 74.9 68.6 30.06 1.00 0.0 65 0.00 0.00 0.00 0.000
10/25/2014 8:11:51a 340 0 0 23 44 74.9 68.7 30.06 1.00 0.0 63 0.00 0.00 0.00 0.000
10/25/2014 8:12:51a 340 0 0 23 45 74.9 68.7 30.06 1.00 0.0 63 0.00 0.00 0.00 0.000
10/25/2014 8:13:52a 340 0 0 23 46 74.9 68.7 30.06 1.00 0.0 62 0.00 0.00 0.00 0.000
10/25/2014 8:14:52a 340 0 0 23 46 74.9 68.6 30.06 1.00 0.0 62 0.00 0.00 0.00 0.000
10/25/2014 8:15:52a 340 0 1 23 46 74.9 68.6 30.06 1.00 0.0 62 0.00 0.00 0.00 0.000
10/25/2014 8:16:52a 340 0 1 23 45 74.9 68.6 30.06 1.00 0.0 62 0.00 0.00 0.00 0.000
10/25/2014 8:17:52a 340 0 1 23 44 74.9 68.6 30.06 1.00 0.0 65 0.00 0.00 0.00 0.000
10/25/2014 8:18:55a 340 0 0 23 44 74.9 68.7 30.07 1.00 0.0 63 0.00 0.00 0.00 0.000
10/25/2014 8:19:55a 340 0 1 23 44 74.9 68.8 30.06 1.00 0.0 65 0.00 0.00 0.00 0.000
10/25/2014 8:20:55a 340 1 1 23 44 74.9 68.9 30.06 1.00 0.0 65 0.00 0.00 0.00 0.000
10/25/2014 8:21:55a 340 0 1 23 46 74.9 69.0 30.07 1.00 0.0 63 0.00 0.00 0.00 0.000
10/25/2014 8:22:55a 340 0 1 23 46 74.9 69.0 30.07 1.00 0.0 62 0.00 0.00 0.00 0.000
10/25/2014 8:24:01a 340 1 1 23 46 74.9 69.0 30.07 1.00 0.0 58 0.00 0.00 0.00 0.000
10/25/2014 8:25:01a 340 0 1 23 46 74.9 69.1 30.07 1.00 0.0 58 0.00 0.00 0.00 0.000
10/25/2014 8:26:01a 340 0 1 23 46 74.9 69.2 30.07 1.00 0.0 58 0.00 0.00 0.00 0.000
10/25/2014 8:27:01a 340 0 1 23 46 74.9 69.3 30.07 1.00 0.0 54 0.00 0.00 0.00 0.000
10/25/2014 8:28:01a 340 0 1 23 46 74.9 69.4 30.07 1.00 0.0 56 0.00 0.00 0.00 0.000
10/25/2014 8:29:01a 340 0 1 23 46 74.9 69.5 30.07 1.00 0.0 56 0.00 0.00 0.00 0.000
10/25/2014 8:30:01a 340 0 1 23 46 74.9 69.6 30.07 1.00 0.0 60 0.00 0.00 0.00 0.000
10/25/2014 8:31:08a 340 0 1 23 46 74.9 69.7 30.07 1.00 0.0 63 0.00 0.00 0.00 0.000
10/25/2014 8:32:08a 340 0 1 23 46 74.9 69.7 30.07 1.00 0.0 63 0.00 0.00 0.00 0.000
10/25/2014 8:33:08a 340 0 1 23 46 75.1 69.8 30.07 1.00 0.0 63 0.00 0.00 0.00 0.000
10/25/2014 8:34:08a 340 0 0 23 46 75.1 69.9 30.07 1.00 0.0 62 0.00 0.00 0.00 0.000
10/25/2014 8:35:08a 340 0 0 23 45 75.1 69.9 30.07 1.00 0.0 63 0.00 0.00 0.00 0.000
10/25/2014 8:36:08a 340 0 0 23 44 75.1 70.0 30.07 1.00 0.0 65 0.00 0.00 0.00 0.000
10/25/2014 8:37:08a 340 2 2 23 44 75.1 70.2 30.08 1.00 0.5 70 0.00 0.00 0.00 0.000
10/25/2014 8:38:08a 340 0 2 23 43 75.1 70.3 30.08 1.00 0.5 76 0.00 0.00 0.00 0.000
10/25/2014 8:39:08a 340 0 2 23 43 75.1 70.5 30.08 1.00 0.5 88 0.00 0.00 0.00 0.000
10/25/2014 8:40:08a 340 1 2 23 44 75.1 70.7 30.07 1.00 0.5 137 0.00 0.00 0.00 0.000
10/25/2014 8:41:08a 340 0 2 23 42 75.1 70.9 30.07 1.00 0.5 125 0.00 0.00 0.00 0.000
10/25/2014 8:42:11a 340 0 2 23 41 75.1 71.1 30.07 1.00 0.5 114 0.00 0.00 0.00 0.000
10/25/2014 8:43:11a 340 0 2 23 40 75.1 71.3 30.07 1.00 0.5 146 0.00 0.00 0.00 0.000
10/25/2014 8:44:15a 340 0 2 23 40 75.1 71.4 30.07 1.00 0.5 156 0.00 0.00 0.00 0.000
10/25/2014 8:45:15a 340 0 2 23 40 75.1 71.6 30.07 1.00 0.5 86 0.00 0.00 0.00 0.000
10/25/2014 8:46:21a 340 0 2 23 40 75.1 71.7 30.07 1.00 0.5 76 0.00 0.00 0.00 0.000
10/25/2014 8:47:21a 340 0 2 23 40 75.1 71.8 30.07 1.00 0.5 62 0.00 0.00 0.00 0.000
10/25/2014 8:48:21a 340 0 2 23 40 75.1 71.9 30.08 1.00 0.5 67 0.00 0.00 0.00 0.000
10/25/2014 8:49:21a 340 0 0 23 40 75.1 72.0 30.08 1.00 0.5 67 0.00 0.00 0.00 0.000
10/25/2014 8:50:21a 340 0 0 23 40 75.1 72.0 30.08 1.00 0.5 63 0.00 0.00 0.00 0.000
10/25/2014 8:51:21a 340 0 0 23 40 75.1 72.1 30.08 1.00 0.5 79 0.00 0.00 0.00 0.000
10/25/2014 8:52:21a 340 0 0 23 40 75.2 72.2 30.08 1.00 0.6 83 0.00 0.00 0.00 0.000
10/25/2014 8:53:21a 340 0 0 23 40 75.2 72.2 30.08 1.00 0.6 67 0.00 0.00 0.00 0.000
10/25/2014 8:54:21a 340 0 0 23 40 75.2 72.3 30.08 1.00 0.6 67 0.00 0.00 0.00 0.000
10/25/2014 8:55:27a 340 0 0 23 40 75.2 72.5 30.07 1.00 0.6 148 0.00 0.00 0.00 0.000
10/25/2014 8:56:27a 340 0 0 23 40 75.2 72.6 30.07 1.00 0.6 148 0.00 0.00 0.00 0.000
10/25/2014 8:57:30a 340 0 0 23 39 75.2 72.7 30.07 1.00 0.6 323 0.00 0.00 0.00 0.000
10/25/2014 8:58:30a 340 0 0 23 39 75.2 72.8 30.08 1.00 0.8 334 0.00 0.00 0.00 0.000
10/25/2014 8:59:30a 340 0 1 23 38 75.2 73.1 30.07 1.00 0.8 334 0.00 0.00 0.00 0.000
10/25/2014 9:00:31a 340 0 1 23 37 75.2 73.3 30.08 1.00 0.8 339 0.00 0.00 0.00 0.000
10/25/2014 9:01:31a 340 0 1 23 37 75.2 73.5 30.08 1.00 0.8 325 0.00 0.00 0.00 0.000
10/25/2014 9:02:31a 340 0 1 23 36 75.2 73.7 30.08 1.00 0.9 346 0.00 0.00 0.00 0.000
10/25/2014 9:03:31a 340 0 1 23 37 75.4 73.9 30.08 1.00 0.9 343 0.00 0.00 0.00 0.000
10/25/2014 9:04:31a 340 0 1 23 37 75.4 74.1 30.08 1.00 0.9 343 0.00 0.00 0.00 0.000
10/25/2014 9:05:31a 340 1 2 23 37 75.4 74.2 30.08 1.00 0.9 343 0.00 0.00 0.00 0.000
10/25/2014 9:06:31a 340 1 2 23 36 75.4 74.3 30.08 1.00 0.9 336 0.00 0.00 0.00 0.000
10/25/2014 9:07:31a 340 0 2 23 35 75.4 74.4 30.08 1.00 0.9 339 0.00 0.00 0.00 0.000
10/25/2014 9:08:34a 340 1 2 23 36 75.4 74.5 30.08 1.00 0.9 341 0.00 0.00 0.00 0.000
10/25/2014 9:09:34a 340 1 2 23 36 75.4 74.6 30.08 1.00 0.9 341 0.00 0.00 0.00 0.000
10/25/2014 9:10:34a 340 0 2 23 35 75.4 74.7 30.08 1.00 0.9 341 0.00 0.00 0.00 0.000
10/25/2014 9:11:34a 340 2 3 23 35 75.4 74.8 30.08 1.00 0.9 338 0.00 0.00 0.00 0.000
10/25/2014 9:12:40a 340 2 3 23 35 75.6 74.9 30.08 1.00 0.9 269 0.00 0.00 0.00 0.000
10/25/2014 9:13:40a 340 0 3 23 34 75.6 75.1 30.08 1.00 1.0 341 0.00 0.00 0.00 0.000
10/25/2014 9:14:40a 340 0 3 23 34 75.6 75.2 30.08 1.00 1.0 352 0.00 0.00 0.00 0.000
10/25/2014 9:15:40a 340 2 3 23 34 75.6 75.4 30.08 1.00 1.0 345 0.00 0.00 0.00 0.000
10/25/2014 9:16:40a 340 1 3 23 33 75.6 75.4 30.08 1.00 1.0 355 0.00 0.00 0.00 0.000
10/25/2014 9:17:41a 340 1 3 23 33 75.6 75.5 30.08 1.00 1.0 357 0.00 0.00 0.00 0.000
10/25/2014 9:18:41a 340 0 2 23 33 75.6 75.6 30.08 1.00 1.0 359 0.00 0.00 0.00 0.000
10/25/2014 9:19:44a 340 1 2 23 33 75.8 75.7 30.08 1.00 1.1 364 0.00 0.00 0.00 0.000
10/25/2014 9:20:44a 340 1 2 23 33 75.8 75.8 30.08 1.00 1.1 366 0.00 0.00 0.00 0.000
10/25/2014 9:21:44a 340 0 2 23 32 75.8 75.8 30.08 1.00 1.1 366 0.00 0.00 0.00 0.000
10/25/2014 9:22:44a 340 2 3 23 32 75.8 75.9 30.08 1.00 1.1 371 0.00 0.00 0.00 0.000
10/25/2014 9:23:44a 340 0 3 23 32 75.8 76.0 30.08 1.00 1.1 376 0.00 0.00 0.00 0.000
10/25/2014 9:24:44a 340 0 3 23 32 75.9 76.1 30.08 1.00 1.2 380 0.00 0.00 0.00 0.000
10/25/2014 9:25:44a 340 0 3 23 32 75.9 76.2 30.08 1.00 1.2 381 0.00 0.00 0.00 0.000
10/25/2014 9:26:44a 340 1 3 23 32 75.9 76.2 30.08 1.00 1.2 383 0.00 0.00 0.00 0.000
10/25/2014 9:27:47a 340 0 3 23 32 75.9 76.3 30.08 1.00 1.2 385 0.00 0.00 0.00 0.000
10/25/2014 9:28:47a 340 0 3 23 32 75.9 76.4 30.08 1.00 1.2 297 0.00 0.00 0.00 0.000
10/25/2014 9:29:47a 340 0 3 23 32 75.9 76.6 30.07 1.00 1.2 390 0.00 0.00 0.00 0.000
10/25/2014 9:30:53a 340 0 3 23 32 76.1 76.7 30.07 1.00 1.2 394 0.00 0.00 0.00 0.000
10/25/2014 9:31:56a 340 0 3 23 31 76.1 76.8 30.07 1.00 1.2 397 0.00 0.00 0.00 0.000
10/25/2014 9:32:56a 340 0 3 23 31 76.1 76.9 30.08 1.00 1.2 401 0.00 0.00 0.00 0.000
10/25/2014 9:33:57a 340 0 0 24 31 76.1 76.9 30.07 1.00 1.3 404 0.00 0.00 0.00 0.000
10/25/2014 9:34:57a 340 0 1 24 31 76.3 77.0 30.07 1.00 1.3 408 0.00 0.00 0.00 0.000
10/25/2014 9:36:03a 340 0 1 24 31 76.3 77.0 30.07 1.00 1.3 410 0.00 0.00 0.00 0.000
10/25/2014 9:37:03a 340 0 1 24 31 76.3 77.0 30.07 1.00 1.3 411 0.00 0.00 0.00 0.000
10/25/2014 9:38:03a 340 0 1 24 31 76.3 77.0 30.07 1.00 1.3 413 0.00 0.00 0.00 0.000
10/25/2014 9:39:03a 340 1 1 24 31 76.3 77.0 30.07 1.00 1.3 418 0.00 0.00 0.00 0.000
10/25/2014 9:40:03a 340 1 2 24 31 76.5 77.1 30.07 1.00 1.4 422 0.00 0.00 0.00 0.000
10/25/2014 9:41:03a 340 2 3 24 31 76.5 77.1 30.07 1.00 1.4 424 0.00 0.00 0.00 0.000
10/25/2014 9:42:03a 340 2 3 24 31 76.5 77.1 30.07 1.00 1.4 427 0.00 0.00 0.00 0.000
10/25/2014 9:43:03a 340 2 3 24 32 76.5 77.2 30.07 1.00 1.4 429 0.00 0.00 0.00 0.000
10/25/2014 9:44:03a 340 2 3 24 32 76.6 77.3 30.07 1.00 1.4 432 0.00 0.00 0.00 0.000
10/25/2014 9:45:06a 338 1 3 24 31 76.6 77.3 30.07 1.00 1.5 436 0.00 0.00 0.00 0.000
10/25/2014 9:46:06a 338 0 3 24 31 76.6 77.4 30.08 1.00 1.5 438 0.00 0.00 0.00 0.000
10/25/2014 9:47:06a 337 1 3 24 31 76.6 77.5 30.08 1.00 1.5 439 0.00 0.00 0.00 0.000
10/25/2014 9:48:06a 337 1 3 23 30 76.6 77.6 30.07 1.00 1.5 441 0.00 0.00 0.00 0.000
10/25/2014 9:49:07a 337 0 0 24 30 76.8 77.8 30.07 1.00 1.5 445 0.00 0.00 0.00 0.000
10/25/2014 9:50:07a 337 0 1 23 30 76.8 77.9 30.08 1.00 1.5 446 0.00 0.00 0.00 0.000
10/25/2014 9:51:07a 338 1 2 23 30 76.8 78.0 30.08 1.00 1.5 450 0.00 0.00 0.00 0.000
10/25/2014 9:52:08a 338 1 2 23 30 76.8 78.0 30.08 1.00 1.6 452 0.00 0.00 0.00 0.000
10/25/2014 9:53:08a 337 2 3 23 30 77.0 78.1 30.08 1.00 1.6 454 0.00 0.00 0.00 0.000
10/25/2014 9:54:08a 338 0 3 23 30 77.0 78.0 30.08 1.00 1.6 455 0.00 0.00 0.00 0.000
10/25/2014 9:55:08a 337 1 3 23 30 77.0 78.0 30.08 1.00 1.6 459 0.00 0.00 0.00 0.000
10/25/2014 9:56:08a 337 0 3 23 30 77.0 78.1 30.08 1.00 1.6 461 0.00 0.00 0.00 0.000
10/25/2014 9:57:08a 253 1 4 23 31 77.0 78.2 30.08 1.00 1.6 461 0.00 0.00 0.00 0.000
10/25/2014 9:58:08a 253 1 4 23 30 77.2 78.2 30.08 1.00 1.7 468 0.00 0.00 0.00 0.000
10/25/2014 9:59:11a 252 2 4 23 31 77.2 78.3 30.08 1.00 1.5 374 0.00 0.00 0.00 0.000
10/25/2014 10:00:11a 253 1 4 23 30 77.2 78.3 30.08 1.00 1.7 374 0.00 0.00 0.00 0.000
10/25/2014 10:01:11a 253 0 4 23 30 77.2 78.4 30.08 1.00 1.7 480 0.00 0.00 0.00 0.000
10/25/2014 10:02:11a 253 1 4 23 30 77.3 78.4 30.08 1.00 1.7 480 0.00 0.00 0.00 0.000
10/25/2014 10:03:11a 253 2 4 23 30 77.3 78.4 30.08 1.00 1.8 483 0.00 0.00 0.00 0.000
10/25/2014 10:04:11a 254 0 2 23 30 77.3 78.5 30.08 1.00 1.8 490 0.00 0.00 0.00 0.000
10/25/2014 10:05:17a 254 0 2 23 30 77.3 78.6 30.08 1.00 1.8 501 0.00 0.00 0.00 0.000
10/25/2014 10:06:17a 254 0 2 23 30 77.5 78.6 30.07 1.00 1.9 513 0.00 0.00 0.00 0.000
10/25/2014 10:07:17a 253 0 2 23 30 77.5 78.6 30.08 1.00 1.9 543 0.00 0.00 0.00 0.000
10/25/2014 10:08:17a 253 1 3 23 30 77.5 78.6 30.07 1.00 1.9 548 0.00 0.00 0.00 0.000
10/25/2014 10:09:18a 215 0 4 23 30 77.7 78.6 30.07 1.00 2.0 550 0.00 0.00 0.00 0.000
10/25/2014 10:10:21a 226 0 4 23 30 77.7 78.6 30.07 1.00 2.0 548 0.00 0.00 0.00 0.000
10/25/2014 10:11:24a 246 1 4 23 30 77.7 78.7 30.07 1.00 2.0 568 0.00 0.00 0.00 0.000
10/25/2014 10:12:27a 246 0 4 23 30 77.9 78.7 30.07 1.00 2.0 541 0.00 0.00 0.00 0.000
10/25/2014 10:13:27a 246 0 4 23 30 77.9 78.9 30.08 1.00 2.0 575 0.00 0.00 0.00 0.000
10/25/2014 10:14:27a 246 0 4 23 29 77.9 79.0 30.08 1.00 1.7 573 0.00 0.00 0.00 0.000
10/25/2014 10:15:27a 246 1 4 23 29 77.9 79.0 30.08 1.00 2.0 575 0.00 0.00 0.00 0.000
10/25/2014 10:16:27a 246 2 4 23 29 78.1 79.0 30.08 1.00 2.0 568 0.00 0.00 0.00 0.000
10/25/2014 10:17:27a 242 0 4 23 29 78.1 79.0 30.08 1.00 2.1 570 0.00 0.00 0.00 0.000
10/25/2014 10:18:30a 242 0 0 23 29 78.1 79.0 30.08 1.00 2.1 552 0.00 0.00 0.00 0.000
10/25/2014 10:19:30a 242 0 1 23 29 78.2 79.0 30.08 1.00 2.1 548 0.00 0.00 0.00 0.000
10/25/2014 10:20:30a 242 0 1 23 29 78.2 79.0 30.08 1.00 2.1 545 0.00 0.00 0.00 0.000
10/25/2014 10:21:30a 242 2 2 23 29 78.2 79.1 30.08 1.00 2.1 538 0.00 0.00 0.00 0.000
10/25/2014 10:22:30a 242 2 2 23 29 78.4 79.2 30.08 1.00 2.1 538 0.00 0.00 0.00 0.000
10/25/2014 10:23:33a 232 0 4 23 29 78.4 79.2 30.08 1.00 2.1 533 0.00 0.00 0.00 0.000
10/25/2014 10:24:33a 232 0 4 23 29 78.4 79.2 30.08 1.00 2.2 534 0.00 0.00 0.00 0.000
10/25/2014 10:25:34a 198 3 4 23 29 78.4 79.1 30.08 1.00 2.2 536 0.00 0.00 0.00 0.000
10/25/2014 10:26:34a 198 1 4 23 29 78.6 79.0 30.08 1.00 2.2 540 0.00 0.00 0.00 0.000
10/25/2014 10:27:34a 198 0 4 23 29 78.6 79.0 30.08 1.00 2.2 543 0.00 0.00 0.00 0.000
10/25/2014 10:28:34a 198 0 4 23 29 78.6 79.0 30.08 1.00 2.2 545 0.00 0.00 0.00 0.000
10/25/2014 10:29:34a 198 0 4 23 29 78.8 79.0 30.08 1.00 2.2 531 0.00 0.00 0.00 0.000
10/25/2014 10:30:34a 151 4 4 23 29 78.8 79.0 30.08 1.00 2.3 541 0.00 0.00 0.00 0.000
10/25/2014 10:31:34a 196 5 5 23 29 78.8 79.0 30.08 1.00 2.3 555 0.00 0.00 0.00 0.000
10/25/2014 10:32:34a 196 1 5 23 29 78.8 79.0 30.08 1.00 2.3 559 0.00 0.00 0.00 0.000
10/25/2014 10:33:37a 196 1 1 23 29 78.9 79.0 30.08 1.00 2.3 561 0.00 0.00 0.00 0.000
10/25/2014 10:34:37a 203 3 3 23 29 78.9 79.0 30.08 1.00 2.3 568 0.00 0.00 0.00 0.000
10/25/2014 10:35:37a 205 3 3 23 29 78.9 79.0 30.08 1.00 2.4 571 0.00 0.00 0.00 0.000
10/25/2014 10:36:37a 209 3 4 23 29 79.1 79.0 30.08 1.00 2.4 577 0.00 0.00 0.00 0.000
10/25/2014 10:37:37a 209 1 4 23 29 79.1 79.0 30.08 1.00 2.4 580 0.00 0.00 0.00 0.000
10/25/2014 10:38:37a 206 3 4 23 30 79.1 79.2 30.08 1.00 2.4 584 0.00 0.00 0.00 0.000
10/25/2014 10:39:37a 253 1 4 23 28 79.3 79.3 30.08 1.00 2.4 589 0.00 0.00 0.00 0.000
10/25/2014 10:40:37a 263 1 4 23 29 79.3 79.4 30.08 1.00 2.5 598 0.00 0.00 0.00 0.000
10/25/2014 10:41:37a 184 2 4 23 29 79.3 79.5 30.08 1.00 2.5 601 0.00 0.00 0.00 0.000
10/25/2014 10:42:37a 240 0 4 24 29 79.5 79.4 30.08 1.00 2.5 601 0.00 0.00 0.00 0.000
10/25/2014 10:43:44a 212 2 4 24 30 79.5 79.3 30.08 1.00 2.5 605 0.00 0.00 0.00 0.000
10/25/2014 10:44:44a 215 5 7 24 29 79.7 79.5 30.08 1.00 2.6 606 0.00 0.00 0.00 0.000
10/25/2014 10:45:47a 186 5 7 24 28 79.7 79.5 30.08 1.00 2.6 612 0.00 0.00 0.00 0.000
10/25/2014 10:46:47a 207 4 7 24 28 79.7 79.4 30.08 1.00 2.6 612 0.00 0.00 0.00 0.000
10/25/2014 10:47:50a 203 4 7 24 29 79.9 79.3 30.08 1.00 2.6 608 0.00 0.00 0.00 0.000
10/25/2014 10:48:50a 203 0 1 24 29 79.9 79.3 30.08 1.00 2.3 575 0.00 0.00 0.00 0.000
10/25/2014 10:49:50a 202 0 1 24 28 79.9 79.2 30.08 1.00 2.3 575 0.00 0.00 0.00 0.000
10/25/2014 10:50:50a 192 3 5 24 29 80.1 79.3 30.08 1.00 2.3 487 0.00 0.00 0.00 0.000
10/25/2014 10:51:50a 213 3 5 24 29 80.1 79.2 30.08 1.00 2.4 554 0.00 0.00 0.00 0.000
10/25/2014 10:52:50a 209 0 5 24 29 80.1 79.2 30.08 1.00 2.4 529 0.00 0.00 0.00 0.000
10/25/2014 10:53:50a 211 1 5 24 29 80.2 79.3 30.08 1.00 2.1 429 0.00 0.00 0.00 0.000
10/25/2014 10:54:56a 211 0 5 24 29 80.2 79.4 30.08 1.00 2.3 425 0.00 0.00 0.00 0.000
10/25/2014 10:55:56a 211 1 5 24 29 80.2 79.3 30.08 1.00 1.8 206 0.00 0.00 0.00 0.000
10/25/2014 10:56:59a 212 0 5 24 29 80.2 79.3 30.08 1.00 2.6 206 0.00 0.00 0.00 0.000
10/25/2014 10:57:59a 211 0 5 24 29 80.4 79.4 30.08 1.00 2.7 617 0.00 0.00 0.00 0.000
10/25/2014 10:58:59a 211 0 5 24 29 80.4 79.5 30.08 1.00 2.7 617 0.00 0.00 0.00 0.000
10/25/2014 11:00:00a 211 2 5 24 29 80.4 79.6 30.07 1.00 2.7 615 0.00 0.00 0.00 0.000
10/25/2014 11:01:03a 213 0 5 24 29 80.6 79.7 30.07 1.00 2.8 615 0.00 0.00 0.00 0.000
10/25/2014 11:02:03a 213 0 5 24 28 80.6 79.7 30.07 1.00 2.8 617 0.00 0.00 0.00 0.000
10/25/2014 11:03:03a 213 3 5 23 28 80.6 79.7 30.07 1.00 2.8 619 0.00 0.00 0.00 0.000
10/25/2014 11:04:03a 213 1 1 24 29 80.8 79.7 30.08 1.00 2.8 619 0.00 0.00 0.00 0.000
10/25/2014 11:05:06a 235 0 5 23 28 80.8 79.7 30.08 1.00 2.8 621 0.00 0.00 0.00 0.000
10/25/2014 11:06:06a 235 3 5 23 28 80.8 79.9 30.08 1.00 2.8 621 0.00 0.00 0.00 0.000
10/25/2014 11:07:06a 236 4 5 23 28 81.0 80.0 30.08 1.00 2.8 622 0.00 0.00 0.00 0.000
10/25/2014 11:08:06a 234 0 5 23 28 81.0 79.9 30.08 1.00 2.9 624 0.00 0.00 0.00 0.000
10/25/2014 11:09:06a 234 3 5 23 28 81.0 80.0 30.08 1.00 2.9 626 0.00 0.00 0.00 0.000
10/25/2014 11:10:06a 234 0 5 24 28 81.0 80.1 30.08 1.00 2.9 626 0.00 0.00 0.00 0.000
10/25/2014 11:11:06a 234 0 5 24 28 81.2 80.1 30.08 1.00 2.9 626 0.00 0.00 0.00 0.000
10/25/2014 11:12:06a 234 3 5 24 28 81.2 80.2 30.07 1.00 2.9 624 0.00 0.00 0.00 0.000
10/25/2014 11:13:07a 255 3 5 24 29 81.2 80.3 30.08 1.00 2.9 628 0.00 0.00 0.00 0.000
10/25/2014 11:14:10a 242 4 5 24 29 81.4 80.4 30.07 1.00 2.9 631 0.00 0.00 0.00 0.000
10/25/2014 11:15:13a 202 3 6 24 28 81.4 80.4 30.07 1.00 3.0 629 0.00 0.00 0.00 0.000
10/25/2014 11:16:13a 222 4 6 23 28 81.4 80.2 30.07 1.00 3.0 631 0.00 0.00 0.00 0.000
10/25/2014 11:17:13a 219 3 6 23 29 81.5 80.1 30.08 1.00 3.0 631 0.00 0.00 0.00 0.000
10/25/2014 11:18:13a 219 1 6 23 29 81.5 80.2 30.08 1.00 3.0 635 0.00 0.00 0.00 0.000
10/25/2014 11:19:13a 207 2 2 23 28 81.5 80.2 30.07 1.00 3.0 636 0.00 0.00 0.00 0.000
10/25/2014 11:20:13a 203 4 4 23 29 81.5 80.2 30.07 1.00 3.0 636 0.00 0.00 0.00 0.000
10/25/2014 11:21:13a 213 4 7 23 28 81.7 80.2 30.07 1.00 3.0 638 0.00 0.00 0.00 0.000
10/25/2014 11:22:13a 213 1 7 23 28 81.7 80.2 30.07 1.00 3.0 638 0.00 0.00 0.00 0.000
10/25/2014 11:23:13a 213 0 7 23 28 81.7 80.1 30.07 1.00 3.0 638 0.00 0.00 0.00 0.000
10/25/2014 11:24:13a 214 0 7 23 28 81.9 80.1 30.07 1.00 3.1 638 0.00 0.00 0.00 0.000
10/25/2014 11:25:13a 213 0 7 23 28 81.9 80.2 30.07 1.00 3.1 640 0.00 0.00 0.00 0.000
10/25/2014 11:26:13a 213 0 7 23 28 81.9 80.2 30.07 1.00 3.1 642 0.00 0.00 0.00 0.000
10/25/2014 11:27:13a 213 0 7 23 27 81.9 80.3 30.07 1.00 3.1 642 0.00 0.00 0.00 0.000
10/25/2014 11:28:13a 213 0 7 23 27 82.1 80.4 30.07 1.00 3.1 642 0.00 0.00 0.00 0.000
10/25/2014 11:29:14a 213 1 7 23 28 82.1 80.4 30.07 1.00 3.1 645 0.00 0.00 0.00 0.000
10/25/2014 11:30:14a 193 3 7 23 27 82.1 80.5 30.07 1.00 3.1 645 0.00 0.00 0.00 0.000
10/25/2014 11:31:14a 163 9 10 23 28 82.3 80.5 30.07 1.00 3.1 647 0.00 0.00 0.00 0.000
10/25/2014 11:32:17a 269 2 11 23 28 82.3 80.5 30.07 1.00 3.1 649 0.00 0.00 0.00 0.000
10/25/2014 11:33:17a 280 1 11 23 28 82.3 80.6 30.07 1.00 3.1 650 0.00 0.00 0.00 0.000
10/25/2014 11:34:17a 309 3 3 23 28 82.3 80.8 30.07 1.00 3.2 652 0.00 0.00 0.00 0.000
10/25/2014 11:35:17a 314 2 4 23 27 82.5 80.8 30.07 1.00 3.2 654 0.00 0.00 0.00 0.000
10/25/2014 11:36:17a 272 3 4 23 27 82.5 80.9 30.07 1.00 3.2 656 0.00 0.00 0.00 0.000
10/25/2014 11:37:23a 271 1 4 23 27 82.7 80.9 30.07 1.00 3.2 656 0.00 0.00 0.00 0.000
10/25/2014 11:38:23a 269 0 4 24 27 82.7 81.0 30.07 1.00 3.2 657 0.00 0.00 0.00 0.000
10/25/2014 11:39:26a 242 4 5 24 27 82.7 81.2 30.07 1.00 3.2 659 0.00 0.00 0.00 0.000
10/25/2014 11:40:26a 244 2 5 24 27 82.9 81.2 30.07 1.00 3.2 659 0.00 0.00 0.00 0.000
10/25/2014 11:41:26a 244 0 5 24 27 82.9 81.2 30.07 1.00 3.2 661 0.00 0.00 0.00 0.000
10/25/2014 11:42:29a 224 2 5 24 27 82.9 81.1 30.07 1.00 3.3 661 0.00 0.00 0.00 0.000
10/25/2014 11:43:29a 223 1 5 24 27 82.9 81.0 30.07 1.00 3.3 663 0.00 0.00 0.00 0.000
10/25/2014 11:44:29a 221 2 5 24 28 83.0 81.0 30.07 1.00 3.3 663 0.00 0.00 0.00 0.000
10/25/2014 11:45:30a 192 5 5 24 29 83.0 81.1 30.07 1.00 3.3 668 0.00 0.00 0.00 0.000
10/25/2014 11:46:30a 232 4 9 24 27 83.0 81.1 30.07 1.00 3.3 668 0.00 0.00 0.00 0.000
10/25/2014 11:47:30a 217 4 9 24 27 83.2 81.0 30.07 1.00 3.3 670 0.00 0.00 0.00 0.000
10/25/2014 11:48:30a 214 1 4 24 27 83.2 80.9 30.07 1.00 3.3 671 0.00 0.00 0.00 0.000
10/25/2014 11:49:30a 192 5 6 24 27 83.2 80.9 30.06 1.00 3.3 668 0.00 0.00 0.00 0.000
10/25/2014 11:50:30a 213 5 9 24 27 83.4 80.8 30.07 1.00 3.3 668 0.00 0.00 0.00 0.000
10/25/2014 11:51:30a 200 3 9 24 27 83.4 80.7 30.06 1.00 3.3 668 0.00 0.00 0.00 0.000
10/25/2014 11:52:30a 199 2 9 24 28 83.4 80.6 30.06 1.00 3.3 670 0.00 0.00 0.00 0.000
10/25/2014 11:53:33a 201 1 9 24 28 83.6 80.6 30.06 1.00 3.4 671 0.00 0.00 0.00 0.000
10/25/2014 11:54:33a 199 3 9 24 28 83.6 80.7 30.06 1.00 3.4 671 0.00 0.00 0.00 0.000
10/25/2014 11:55:33a 199 0 9 24 28 83.6 80.8 30.06 1.00 3.4 671 0.00 0.00 0.00 0.000
10/25/2014 11:56:33a 224 3 9 24 28 83.8 81.2 30.06 1.00 3.4 673 0.00 0.00 0.00 0.000
10/25/2014 11:57:51a 201 6 9 24 27 83.8 81.4 30.06 1.00 3.4 677 0.00 0.00 0.00 0.000
10/25/2014 11:58:52a 215 3 9 24 28 83.8 81.4 30.06 1.00 3.4 682 0.00 0.00 0.00 0.000
10/25/2014 11:59:55a 194 3 9 24 28 84.0 81.4 30.06 1.00 3.5 686 0.00 0.00 0.00 0.000
10/25/2014 12:01:01p 190 4 9 24 28 84.0 81.4 30.06 1.00 3.5 686 0.00 0.00 0.00 0.000
10/25/2014 12:02:01p 194 1 9 24 28 84.0 81.5 30.06 1.00 3.5 684 0.00 0.00 0.00 0.000
10/25/2014 12:03:04p 205 1 9 24 28 84.0 81.6 30.05 1.00 3.5 686 0.00 0.00 0.00 0.000
10/25/2014 12:04:05p 209 1 3 24 28 84.2 81.7 30.06 1.00 3.5 686 0.00 0.00 0.00 0.000
10/25/2014 12:05:05p 240 3 4 24 28 84.2 81.7 30.06 1.00 3.5 686 0.00 0.00 0.00 0.000
10/25/2014 12:06:05p 240 1 4 24 28 84.2 81.8 30.05 1.00 3.5 691 0.00 0.00 0.00 0.000
10/25/2014 12:07:05p 207 4 5 24 28 84.4 81.8 30.05 1.00 3.5 691 0.00 0.00 0.00 0.000
10/25/2014 12:08:08p 209 5 7 24 28 84.4 81.7 30.05 1.00 3.5 689 0.00 0.00 0.00 0.000
10/25/2014 12:09:08p 219 6 8 24 27 84.4 81.7 30.05 1.00 3.5 689 0.00 0.00 0.00 0.000
10/25/2014 12:10:08p 195 6 8 24 28 84.4 81.7 30.05 1.00 3.5 689 0.00 0.00 0.00 0.000
10/25/2014 12:11:08p 186 0 8 24 28 84.6 81.6 30.05 1.00 3.5 689 0.00 0.00 0.00 0.000
10/25/2014 12:12:08p 186 3 8 24 28 84.6 81.6 30.05 1.00 3.5 691 0.00 0.00 0.00 0.000
10/25/2014 12:13:09p 203 1 8 24 28 84.6 81.6 30.05 1.00 3.5 693 0.00 0.00 0.00 0.000
10/25/2014 12:14:09p 204 0 8 24 27 84.8 81.6 30.05 1.00 3.5 693 0.00 0.00 0.00 0.000
10/25/2014 12:15:09p 236 4 8 24 28 84.8 81.7 30.05 1.00 3.5 693 0.00 0.00 0.00 0.000
10/25/2014 12:16:12p 215 6 8 24 28 84.8 81.8 30.05 1.00 3.5 694 0.00 0.00 0.00 0.000
10/25/2014 12:17:12p 194 5 8 24 28 84.8 81.8 30.05 1.00 3.5 693 0.00 0.00 0.00 0.000
10/25/2014 12:18:12p 203 6 10 24 28 85.0 81.8 30.05 1.00 3.5 693 0.00 0.00 0.00 0.000
10/25/2014 12:19:12p 205 6 10 24 27 85.0 81.8 30.05 1.00 3.5 691 0.00 0.00 0.00 0.000
10/25/2014 12:20:12p 190 3 10 24 28 85.0 81.6 30.05 1.00 3.6 693 0.00 0.00 0.00 0.000
10/25/2014 12:21:12p 211 4 10 24 27 85.0 81.5 30.05 1.00 3.6 696 0.00 0.00 0.00 0.000
10/25/2014 12:22:12p 195 3 10 24 28 85.2 81.4 30.05 1.00 3.6 694 0.00 0.00 0.00 0.000
10/25/2014 12:23:12p 203 4 10 24 28 85.2 81.4 30.05 1.00 3.6 696 0.00 0.00 0.00 0.000
10/25/2014 12:24:12p 203 1 10 24 28 85.2 81.4 30.05 1.00 3.6 694 0.00 0.00 0.00 0.000
10/25/2014 12:25:12p 202 6 10 24 27 85.2 81.4 30.05 1.00 3.6 694 0.00 0.00 0.00 0.000
10/25/2014 12:26:12p 207 6 10 24 28 85.4 81.5 30.05 1.00 3.6 694 0.00 0.00 0.00 0.000
10/25/2014 12:27:12p 221 4 10 24 28 85.4 81.6 30.04 1.00 3.6 694 0.00 0.00 0.00 0.000
10/25/2014 12:28:12p 197 4 10 24 28 85.4 81.7 30.04 1.00 3.6 698 0.00 0.00 0.00 0.000
10/25/2014 12:29:13p 183 5 10 24 28 85.4 81.9 30.05 1.00 3.6 700 0.00 0.00 0.00 0.000
10/25/2014 12:30:13p 207 7 10 24 28 85.6 81.9 30.05 1.00 3.6 698 0.00 0.00 0.00 0.000
10/25/2014 12:31:13p 202 5 10 24 28 85.6 82.0 30.04 1.00 3.6 698 0.00 0.00 0.00 0.000
10/25/2014 12:32:13p 214 6 10 24 28 85.6 82.0 30.04 1.00 3.6 698 0.00 0.00 0.00 0.000
10/25/2014 12:33:13p 172 5 10 24 27 85.6 81.9 30.04 1.00 3.6 700 0.00 0.00 0.00 0.000
10/25/2014 12:34:13p 167 4 5 24 28 85.8 81.9 30.04 1.00 3.6 693 0.00 0.00 0.00 0.000
10/25/2014 12:35:13p 180 1 5 24 27 85.8 81.8 30.04 1.00 3.6 691 0.00 0.00 0.00 0.000
10/25/2014 12:36:16p 206 3 5 24 28 85.8 81.9 30.04 1.00 3.5 689 0.00 0.00 0.00 0.000
10/25/2014 12:37:16p 211 5 5 24 28 86.0 82.0 30.04 1.00 3.6 691 0.00 0.00 0.00 0.000
10/25/2014 12:38:16p 245 2 6 24 28 86.0 82.1 30.04 1.00 3.6 691 0.00 0.00 0.00 0.000
10/25/2014 12:39:22p 248 4 6 24 28 86.0 82.3 30.04 1.00 3.6 693 0.00 0.00 0.00 0.000
10/25/2014 12:40:22p 259 1 6 24 27 86.2 82.4 30.04 1.00 3.5 691 0.00 0.00 0.00 0.000
10/25/2014 12:41:22p 264 2 6 24 28 86.2 82.5 30.04 1.00 3.5 691 0.00 0.00 0.00 0.000
10/25/2014 12:42:22p 252 0 6 24 27 86.2 82.5 30.04 1.00 3.5 691 0.00 0.00 0.00 0.000
10/25/2014 12:43:26p 200 3 6 24 27 86.2 82.4 30.04 1.00 3.6 694 0.00 0.00 0.00 0.000
10/25/2014 12:44:26p 186 3 6 24 28 86.4 82.4 30.04 1.00 3.6 698 0.00 0.00 0.00 0.000
10/25/2014 12:45:26p 197 2 6 24 27 86.4 82.3 30.04 1.00 3.6 698 0.00 0.00 0.00 0.000
10/25/2014 12:46:26p 209 7 12 24 27 86.4 82.3 30.04 1.00 3.6 700 0.00 0.00 0.00 0.000
10/25/2014 12:47:26p 203 7 12 24 28 86.4 82.3 30.04 1.00 3.6 701 0.00 0.00 0.00 0.000
10/25/2014 12:48:26p 211 7 10 24 28 86.6 82.3 30.04 1.00 3.6 698 0.00 0.00 0.00 0.000
10/25/2014 12:49:26p 185 11 11 24 28 86.6 82.3 30.04 1.00 3.5 693 0.00 0.00 0.00 0.000
10/25/2014 12:50:26p 205 6 11 24 28 86.6 82.2 30.04 1.00 3.5 689 0.00 0.00 0.00 0.000
10/25/2014 12:51:26p 213 4 11 24 28 86.6 82.1 30.04 1.00 3.6 694 0.00 0.00 0.00 0.000
10/25/2014 12:52:26p 203 3 11 24 27 86.8 82.1 30.04 1.00 3.5 696 0.00 0.00 0.00 0.000
10/25/2014 12:53:29p 203 0 11 24 27 86.8 82.1 30.04 1.00 3.5 691 0.00 0.00 0.00 0.000
10/25/2014 12:54:29p 190 5 11 24 28 86.8 82.1 30.04 1.00 3.5 691 0.00 0.00 0.00 0.000
10/25/2014 12:55:29p 211 4 11 24 27 86.8 82.2 30.04 1.00 3.5 693 0.00 0.00 0.00 0.000
10/25/2014 12:56:29p 201 3 11 24 27 87.0 82.2 30.04 1.00 3.5 694 0.00 0.00 0.00 0.000
10/25/2014 12:57:30p 211 4 11 24 28 87.0 82.3 30.04 1.00 3.5 700 0.00 0.00 0.00 0.000
10/25/2014 12:58:30p 272 0 11 24 28 87.0 82.4 30.04 1.00 3.6 703 0.00 0.00 0.00 0.000
10/25/2014 12:59:30p 205 6 11 24 28 87.0 82.6 30.04 1.00 3.6 705 0.00 0.00 0.00 0.000
10/25/2014 1:00:30p 275 3 11 24 28 87.2 82.7 30.04 1.00 3.6 708 0.00 0.00 0.00 0.000
10/25/2014 1:01:30p 242 6 11 24 27 87.2 82.8 30.04 1.00 3.6 708 0.00 0.00 0.00 0.000
10/25/2014 1:02:30p 219 4 11 24 27 87.2 82.9 30.04 1.00 3.5 707 0.00 0.00 0.00 0.000
10/25/2014 1:03:30p 192 3 4 24 27 87.2 82.8 30.04 1.00 3.5 708 0.00 0.00 0.00 0.000
10/25/2014 1:04:36p 202 3 6 24 28 87.4 82.7 30.04 1.00 3.6 714 0.00 0.00 0.00 0.000
10/25/2014 1:05:36p 219 2 6 24 28 87.4 82.8 30.04 1.00 3.6 721 0.00 0.00 0.00 0.000
10/25/2014 1:06:36p 204 3 6 24 27 87.4 82.9 30.04 1.00 3.6 719 0.00 0.00 0.00 0.000
10/25/2014 1:07:36p 243 1 6 24 27 87.4 83.1 30.04 1.00 3.5 717 0.00 0.00 0.00 0.000
10/25/2014 1:08:36p 201 5 10 24 28 87.6 83.3 30.04 1.00 3.6 724 0.00 0.00 0.00 0.000
10/25/2014 1:09:42p 192 5 10 24 26 87.6 83.4 30.04 1.00 3.6 728 0.00 0.00 0.00 0.000
10/25/2014 1:10:42p 214 4 10 24 26 87.6 83.3 30.04 1.00 3.6 724 0.00 0.00 0.00 0.000
10/25/2014 1:11:42p 197 9 10 24 26 87.6 83.3 30.04 1.00 3.6 731 0.00 0.00 0.00 0.000
10/25/2014 1:12:42p 211 7 10 24 26 87.8 83.3 30.04 1.00 3.6 728 0.00 0.00 0.00 0.000
10/25/2014 1:13:42p 246 1 10 24 27 87.8 83.2 30.04 1.00 3.5 701 0.00 0.00 0.00 0.000
10/25/2014 1:14:43p 257 3 10 24 26 87.8 83.1 30.04 1.00 3.5 721 0.00 0.00 0.00 0.000
10/25/2014 1:15:43p 219 6 11 24 26 87.8 83.1 30.04 1.00 3.4 705 0.00 0.00 0.00 0.000
10/25/2014 1:16:43p 253 3 11 24 26 87.8 83.0 30.04 1.00 3.5 740 0.00 0.00 0.00 0.000
10/25/2014 1:17:43p 215 2 11 24 26 88.0 82.9 30.04 1.00 3.6 758 0.00 0.00 0.00 0.000
10/25/2014 1:18:43p 193 8 8 24 27 88.0 82.8 30.03 1.00 3.6 772 0.00 0.00 0.00 0.000
10/25/2014 1:19:43p 234 6 14 24 26 88.0 82.8 30.04 1.00 3.6 798 0.00 0.00 0.00 0.000
10/25/2014 1:20:43p 254 3 14 24 26 88.0 82.9 30.04 1.00 3.6 833 0.00 0.00 0.00 0.000
10/25/2014 1:21:43p 241 2 14 24 26 88.2 83.0 30.04 1.00 3.3 853 0.00 0.00 0.00 0.000
10/25/2014 1:22:43p 229 1 14 24 26 88.2 83.0 30.04 1.00 2.7 853 0.00 0.00 0.00 0.000
10/25/2014 1:23:43p 217 7 14 24 26 88.2 83.0 30.04 1.00 2.6 392 0.00 0.00 0.00 0.000
10/25/2014 1:24:43p 203 7 17 24 27 88.2 82.9 30.04 1.00 2.8 476 0.00 0.00 0.00 0.000
10/25/2014 1:25:43p 193 6 17 24 26 88.2 82.7 30.04 1.00 3.4 476 0.00 0.00 0.00 0.000
10/25/2014 1:26:43p 184 3 17 24 26 88.4 82.4 30.04 1.00 3.3 749 0.00 0.00 0.00 0.000
10/25/2014 1:27:43p 276 2 17 24 26 88.4 82.3 30.04 1.00 3.3 728 0.00 0.00 0.00 0.000
10/25/2014 1:28:43p 280 0 17 24 27 88.4 82.4 30.03 1.00 2.9 654 0.00 0.00 0.00 0.000
10/25/2014 1:29:43p 325 2 17 24 26 88.4 82.5 30.04 1.00 2.5 387 0.00 0.00 0.00 0.000
10/25/2014 1:30:46p 325 0 17 24 27 88.4 82.7 30.03 1.00 2.3 364 0.00 0.00 0.00 0.000
10/25/2014 1:31:47p 245 4 17 24 27 88.6 82.8 30.03 1.00 2.3 371 0.00 0.00 0.00 0.000
10/25/2014 1:32:50p 265 0 17 24 26 88.6 82.8 30.03 1.00 2.4 399 0.00 0.00 0.00 0.000
10/25/2014 1:33:50p 226 2 5 24 26 88.6 82.9 30.03 1.00 2.5 450 0.00 0.00 0.00 0.000
10/25/2014 1:34:50p 202 5 6 24 26 88.6 83.1 30.03 1.00 2.8 541 0.00 0.00 0.00 0.000
10/25/2014 1:35:50p 207 8 9 24 27 88.9 83.1 30.03 1.00 2.7 541 0.00 0.00 0.00 0.000
10/25/2014 1:36:50p 192 10 10 24 27 88.9 83.1 30.03 1.00 3.5 541 0.00 0.00 0.00 0.000
10/25/2014 1:37:50p 232 2 13 24 26 88.9 82.9 30.03 1.00 2.8 541 0.00 0.00 0.00 0.000
10/25/2014 1:38:50p 222 2 13 24 26 88.9 82.9 30.03 1.00 2.5 469 0.00 0.00 0.00 0.000
10/25/2014 1:39:50p 214 3 13 24 26 88.9 82.9 30.03 1.00 2.7 497 0.00 0.00 0.00 0.000
10/25/2014 1:40:50p 234 3 13 24 26 88.9 82.8 30.03 1.00 2.4 496 0.00 0.00 0.00 0.000
10/25/2014 1:41:50p 209 3 13 24 26 89.1 82.7 30.03 1.00 2.5 445 0.00 0.00 0.00 0.000
10/25/2014 1:42:50p 240 1 13 24 26 89.1 82.6 30.03 1.00 2.6 445 0.00 0.00 0.00 0.000
10/25/2014 1:43:50p 242 1 13 24 26 89.1 82.7 30.03 1.00 2.6 469 0.00 0.00 0.00 0.000
10/25/2014 1:44:50p 244 2 13 24 26 89.1 82.7 30.03 1.00 3.2 510 0.00 0.00 0.00 0.000
10/25/2014 1:45:50p 196 5 13 24 26 89.1 82.8 30.03 1.00 2.4 510 0.00 0.00 0.00 0.000
10/25/2014 1:46:50p 234 4 13 24 26 89.3 82.8 30.03 1.00 2.3 376 0.00 0.00 0.00 0.000
10/25/2014 1:47:50p 269 2 13 24 25 89.3 82.7 30.03 1.00 2.2 364 0.00 0.00 0.00 0.000
10/25/2014 1:48:50p 197 5 5 24 25 89.3 82.7 30.03 1.00 2.1 355 0.00 0.00 0.00 0.000
10/25/2014 1:49:51p 230 2 5 24 25 89.3 82.4 30.03 1.00 2.1 348 0.00 0.00 0.00 0.000
10/25/2014 1:50:51p 204 4 5 24 25 89.3 82.3 30.03 1.00 2.1 348 0.00 0.00 0.00 0.000
10/25/2014 1:51:51p 211 2 5 24 25 89.5 82.2 30.03 1.00 2.1 357 0.00 0.00 0.00 0.000
10/25/2014 1:52:51p 257 5 11 24 25 89.5 82.1 30.03 1.00 2.2 418 0.00 0.00 0.00 0.000
10/25/2014 1:53:51p 248 7 11 24 25 89.5 82.1 30.03 1.00 2.2 394 0.00 0.00 0.00 0.000
10/25/2014 1:54:51p 232 4 11 24 25 89.5 82.1 30.03 1.00 2.1 383 0.00 0.00 0.00 0.000
10/25/2014 1:55:54p 209 0 11 24 26 89.5 82.1 30.03 1.00 2.2 396 0.00 0.00 0.00 0.000
10/25/2014 1:56:54p 199 3 11 24 26 89.7 82.1 30.03 1.00 2.3 422 0.00 0.00 0.00 0.000
10/25/2014 1:57:54p 189 8 11 24 26 89.7 82.1 30.03 1.00 2.2 411 0.00 0.00 0.00 0.000
10/25/2014 1:58:54p 182 3 11 24 25 89.7 82.2 30.04 1.00 2.4 432 0.00 0.00 0.00 0.000
10/25/2014 1:59:54p 190 4 11 24 25 89.7 82.1 30.03 1.00 2.3 422 0.00 0.00 0.00 0.000
10/25/2014 2:00:54p 202 1 11 24 25 89.7 82.0 30.03 1.00 2.2 413 0.00 0.00 0.00 0.000
10/25/2014 2:01:54p 208 2 11 24 26 89.7 82.0 30.03 1.00 2.4 413 0.00 0.00 0.00 0.000
10/25/2014 2:02:54p 205 4 11 24 26 89.7 82.1 30.03 1.00 2.3 413 0.00 0.00 0.00 0.000
10/25/2014 2:03:54p 356 1 4 24 25 89.9 82.2 30.04 1.00 2.4 413 0.00 0.00 0.00 0.000
10/25/2014 2:04:54p 229 6 6 24 26 89.9 82.3 30.04 1.00 2.4 413 0.00 0.00 0.00 0.000
10/25/2014 2:05:54p 251 3 7 24 26 89.9 82.3 30.04 1.00 2.6 413 0.00 0.00 0.00 0.000
10/25/2014 2:06:55p 203 10 11 24 26 89.9 82.3 30.04 1.00 2.3 413 0.00 0.00 0.00 0.000
10/25/2014 2:07:55p 195 11 11 24 26 89.9 82.3 30.04 1.00 2.6 420 0.00 0.00 0.00 0.000

© All rights reserved. Unauthorized duplication or distribution is prohibited

Never base important decisions on this or any weather information obtained from the Internet

California State University, San Bernardino
5500 University Parkway, San Bernardino, CA. 92407
Phone: (909) 537-7558, Email: Weather Master
Last Updated: